Time,TemperatureF,DewpointF,PressureIn,WindDirection,WindDirectionDegrees,WindSpeedMPH,WindSpeedGustMPH,Humidity,HourlyPrecipIn,Conditions,Clouds,dailyrainin,SoftwareType,DateUTC
2013-06-02 00:00:00,46.5,41.3,28.53,NW,316,9.0,15.0,82,0.00,CLR,,0.00,WeatherDisplay:10.37,2013-06-02 05:00:00,
2013-06-02 00:01:00,46.4,41.5,28.53,NNW,338,9.2,9.2,83,0.00,CLR,,0.00,WeatherDisplay:10.37,2013-06-02 05:01:00,
2013-06-02 00:03:00,46.2,41.3,28.53,NW,315,8.5,8.5,83,0.00,CLR,,0.00,WeatherDisplay:10.37,2013-06-02 05:03:00,
2013-06-02 00:04:00,46.0,41.2,28.53,NNE,22,9.2,9.2,83,0.00,CLR,,0.00,WeatherDisplay:10.37,2013-06-02 05:04:00,
2013-06-02 00:05:00,46.0,41.2,28.53,North,0,10.4,10.4,83,0.00,CLR,,0.00,WeatherDisplay:10.37,2013-06-02 05:05:00,
2013-06-02 00:07:00,45.9,40.7,28.53,North,0,11.5,11.5,82,0.00,CLR,,0.00,WeatherDisplay:10.37,2013-06-02 05:07:00,
2013-06-02 00:08:00,45.9,40.7,28.53,NW,315,9.2,9.2,82,0.00,CLR,,0.00,WeatherDisplay:10.37,2013-06-02 05:08:00,
2013-06-02 00:10:00,45.7,40.5,28.53,NW,326,8.0,12.0,82,0.00,CLR,,0.00,WeatherDisplay:10.37,2013-06-02 05:10:00,
2013-06-02 00:12:00,45.5,40.3,28.56,WNW,292,11.5,11.5,82,0.00,CLR,,0.00,WeatherDisplay:10.37,2013-06-02 05:12:00,
2013-06-02 00:13:00,45.5,40.0,28.56,NNW,338,12.7,12.7,81,0.00,CLR,,0.00,WeatherDisplay:10.37,2013-06-02 05:13:00,
2013-06-02 00:15:00,45.3,39.5,28.56,NNW,338,11.5,11.5,80,0.00,CLR,,0.00,WeatherDisplay:10.37,2013-06-02 05:15:00,
2013-06-02 00:16:00,45.3,39.5,28.56,NW,315,8.7,8.7,80,0.00,CLR,,0.00,WeatherDisplay:10.37,2013-06-02 05:16:00,
2013-06-02 00:17:00,45.1,39.0,28.56,North,0,11.5,11.5,79,0.00,CLR,,0.00,WeatherDisplay:10.37,2013-06-02 05:17:00,
2013-06-02 00:18:00,45.1,39.0,28.56,NW,315,11.5,11.5,79,0.00,CLR,,0.00,WeatherDisplay:10.37,2013-06-02 05:18:00,
2013-06-02 00:20:00,45.0,39.2,28.56,WNW,292,8.1,8.1,80,0.00,CLR,,0.00,WeatherDisplay:10.37,2013-06-02 05:20:00,
2013-06-02 00:21:00,45.0,39.2,28.56,West,270,8.1,8.1,80,0.00,CLR,,0.00,WeatherDisplay:10.37,2013-06-02 05:21:00,
2013-06-02 00:23:00,44.6,38.5,28.56,WNW,292,11.5,11.5,79,0.00,CLR,,0.00,WeatherDisplay:10.37,2013-06-02 05:23:00,
2013-06-02 00:26:00,44.4,38.0,28.56,NNW,338,8.5,8.5,78,0.00,CLR,,0.00,WeatherDisplay:10.37,2013-06-02 05:26:00,
2013-06-02 00:27:00,44.4,38.0,28.56,NW,315,8.5,8.5,78,0.00,CLR,,0.00,WeatherDisplay:10.37,2013-06-02 05:27:00,
2013-06-02 00:28:00,44.2,37.5,28.56,NNW,338,9.2,9.2,77,0.00,CLR,,0.00,WeatherDisplay:10.37,2013-06-02 05:28:00,
2013-06-02 00:31:00,44.1,37.3,28.56,NNW,338,10.4,10.4,77,0.00,CLR,,0.00,WeatherDisplay:10.37,2013-06-02 05:31:00,
2013-06-02 00:32:00,44.1,37.3,28.56,West,270,11.2,11.2,77,0.00,CLR,,0.00,WeatherDisplay:10.37,2013-06-02 05:32:00,
2013-06-02 00:34:00,44.1,37.3,28.56,NNW,338,10.4,10.4,77,0.00,CLR,,0.00,WeatherDisplay:10.37,2013-06-02 05:34:00,
2013-06-02 00:36:00,43.9,37.5,28.56,NW,315,8.7,8.7,78,0.00,CLR,,0.00,WeatherDisplay:10.37,2013-06-02 05:36:00,
2013-06-02 00:37:00,43.9,37.5,28.56,NNE,22,10.7,10.7,78,0.00,CLR,,0.00,WeatherDisplay:10.37,2013-06-02 05:37:00,
2013-06-02 00:38:00,43.7,37.0,28.56,NW,315,9.2,9.2,77,0.00,CLR,,0.00,WeatherDisplay:10.37,2013-06-02 05:38:00,
2013-06-02 00:39:00,43.7,37.0,28.56,NNE,22,10.5,10.5,77,0.00,CLR,,0.00,WeatherDisplay:10.37,2013-06-02 05:39:00,
2013-06-02 00:41:00,43.7,37.0,28.56,WNW,292,9.2,9.2,77,0.00,CLR,,0.00,WeatherDisplay:10.37,2013-06-02 05:41:00,
2013-06-02 00:42:00,43.7,37.0,28.56,NW,315,10.4,10.4,77,0.00,CLR,,0.00,WeatherDisplay:10.37,2013-06-02 05:42:00,
2013-06-02 00:44:00,43.5,36.8,28.56,NNW,338,10.4,10.4,77,0.00,CLR,,0.00,WeatherDisplay:10.37,2013-06-02 05:44:00,
2013-06-02 00:47:00,43.3,36.9,28.56,North,0,8.1,8.1,78,0.00,CLR,,0.00,WeatherDisplay:10.37,2013-06-02 05:47:00,
2013-06-02 00:48:00,43.3,36.9,28.56,NW,315,10.2,10.2,78,0.00,CLR,,0.00,WeatherDisplay:10.37,2013-06-02 05:48:00,
2013-06-02 00:49:00,43.3,36.9,28.56,West,270,12.7,12.7,78,0.00,CLR,,0.00,WeatherDisplay:10.37,2013-06-02 05:49:00,
2013-06-02 00:50:00,43.3,36.9,28.56,NW,322,7.0,13.0,78,0.00,CLR,,0.00,WeatherDisplay:10.37,2013-06-02 05:50:00,
2013-06-02 00:53:00,43.2,36.8,28.56,NNW,338,9.2,9.2,78,0.00,CLR,,0.00,WeatherDisplay:10.37,2013-06-02 05:53:00,
2013-06-02 00:54:00,43.2,36.8,28.56,North,0,11.5,11.5,78,0.00,CLR,,0.00,WeatherDisplay:10.37,2013-06-02 05:54:00,
2013-06-02 00:55:00,43.2,36.8,28.56,NW,315,9.2,9.2,78,0.00,CLR,,0.00,WeatherDisplay:10.37,2013-06-02 05:55:00,
2013-06-02 00:56:00,43.2,37.1,28.56,NW,315,11.5,11.5,79,0.00,CLR,,0.00,WeatherDisplay:10.37,2013-06-02 05:56:00,
2013-06-02 00:58:00,43.0,36.9,28.56,NW,315,11.5,11.5,79,0.00,CLR,,0.00,WeatherDisplay:10.37,2013-06-02 05:58:00,
2013-06-02 00:59:00,43.0,36.9,28.56,NW,315,11.5,11.5,79,0.00,CLR,,0.00,WeatherDisplay:10.37,2013-06-02 05:59:00,
2013-06-02 01:00:00,43.0,36.9,28.56,NNW,338,10.4,10.4,79,0.00,CLR,,0.00,WeatherDisplay:10.37,2013-06-02 06:00:00,
2013-06-02 01:01:00,43.0,36.9,28.56,NW,315,6.9,6.9,79,0.00,CLR,,0.00,WeatherDisplay:10.37,2013-06-02 06:01:00,
2013-06-02 01:03:00,43.0,37.2,28.56,WNW,292,8.1,8.1,80,0.00,CLR,,0.00,WeatherDisplay:10.37,2013-06-02 06:03:00,
2013-06-02 01:04:00,43.0,37.2,28.56,North,0,6.2,6.2,80,0.00,CLR,,0.00,WeatherDisplay:10.37,2013-06-02 06:04:00,
2013-06-02 01:06:00,43.0,37.2,28.56,NW,315,6.9,6.9,80,0.00,CLR,,0.00,WeatherDisplay:10.37,2013-06-02 06:06:00,
2013-06-02 01:08:00,43.0,37.5,28.56,NNW,338,7.4,7.4,81,0.00,CLR,,0.00,WeatherDisplay:10.37,2013-06-02 06:08:00,
2013-06-02 01:11:00,43.0,37.5,28.56,WNW,292,5.8,5.8,81,0.00,CLR,,0.00,WeatherDisplay:10.37,2013-06-02 06:11:00,
2013-06-02 01:12:00,43.0,37.5,28.56,NW,315,5.8,5.8,81,0.00,CLR,,0.00,WeatherDisplay:10.37,2013-06-02 06:12:00,
2013-06-02 01:14:00,42.8,37.1,28.56,NW,315,8.7,8.7,80,0.00,CLR,,0.00,WeatherDisplay:10.37,2013-06-02 06:14:00,
2013-06-02 01:16:00,42.6,35.9,28.56,NNW,338,11.5,11.5,77,0.00,CLR,,0.00,WeatherDisplay:10.37,2013-06-02 06:16:00,
2013-06-02 01:17:00,42.6,35.9,28.56,NNW,338,12.8,12.8,77,0.00,CLR,,0.00,WeatherDisplay:10.37,2013-06-02 06:17:00,
2013-06-02 01:18:00,42.6,35.6,28.56,WNW,292,12.7,12.7,76,0.00,CLR,,0.00,WeatherDisplay:10.37,2013-06-02 06:18:00,
2013-06-02 01:20:00,42.3,34.6,28.56,NW,315,12.7,12.7,74,0.00,CLR,,0.00,WeatherDisplay:10.37,2013-06-02 06:20:00,
2013-06-02 01:21:00,42.3,34.6,28.56,NW,315,8.1,8.1,74,0.00,CLR,,0.00,WeatherDisplay:10.37,2013-06-02 06:21:00,
2013-06-02 01:22:00,42.3,34.6,28.56,NNW,338,9.8,9.8,74,0.00,CLR,,0.00,WeatherDisplay:10.37,2013-06-02 06:22:00,
2013-06-02 01:23:00,42.3,34.9,28.56,NNW,338,9.2,9.2,75,0.00,CLR,,0.00,WeatherDisplay:10.37,2013-06-02 06:23:00,
2013-06-02 01:27:00,42.1,34.4,28.58,North,0,11.5,11.5,74,0.00,CLR,,0.00,WeatherDisplay:10.37,2013-06-02 06:27:00,
2013-06-02 01:28:00,42.1,34.4,28.58,WNW,292,10.4,10.4,74,0.00,CLR,,0.00,WeatherDisplay:10.37,2013-06-02 06:28:00,
2013-06-02 01:32:00,42.1,34.4,28.58,North,0,6.9,6.9,74,0.00,CLR,,0.00,WeatherDisplay:10.37,2013-06-02 06:32:00,
2013-06-02 01:33:00,42.1,34.7,28.58,WNW,292,6.9,6.9,75,0.00,CLR,,0.00,WeatherDisplay:10.37,2013-06-02 06:33:00,
2013-06-02 01:34:00,42.1,34.7,28.58,North,0,6.9,6.9,75,0.00,CLR,,0.00,WeatherDisplay:10.37,2013-06-02 06:34:00,
2013-06-02 01:37:00,42.1,34.4,28.58,NNW,338,7.6,7.6,74,0.00,CLR,,0.00,WeatherDisplay:10.37,2013-06-02 06:37:00,
2013-06-02 01:38:00,42.1,34.4,28.58,NW,315,8.1,8.1,74,0.00,CLR,,0.00,WeatherDisplay:10.37,2013-06-02 06:38:00,
2013-06-02 01:39:00,41.9,34.2,28.58,NNW,338,5.8,5.9,74,0.00,CLR,,0.00,WeatherDisplay:10.37,2013-06-02 06:39:00,
2013-06-02 01:43:00,41.9,33.5,28.58,WNW,292,10.4,10.4,72,0.00,CLR,,0.00,WeatherDisplay:10.37,2013-06-02 06:43:00,
2013-06-02 01:44:00,41.7,33.4,28.58,North,0,12.7,12.7,72,0.00,CLR,,0.00,WeatherDisplay:10.37,2013-06-02 06:44:00,
2013-06-02 01:49:00,41.7,33.0,28.58,North,0,9.2,9.2,71,0.00,CLR,,0.00,WeatherDisplay:10.37,2013-06-02 06:49:00,
2013-06-02 01:50:00,41.5,32.8,28.58,NW,315,12.7,12.7,71,0.00,CLR,,0.00,WeatherDisplay:10.37,2013-06-02 06:50:00,
2013-06-02 01:54:00,41.5,33.2,28.58,NNW,338,11.5,11.5,72,0.00,CLR,,0.00,WeatherDisplay:10.37,2013-06-02 06:54:00,
2013-06-02 01:55:00,41.5,32.8,28.61,NW,315,11.5,11.5,71,0.00,CLR,,0.00,WeatherDisplay:10.37,2013-06-02 06:55:00,
2013-06-02 01:56:00,41.4,32.7,28.61,NW,315,17.3,17.3,71,0.00,CLR,,0.00,WeatherDisplay:10.37,2013-06-02 06:56:00,
2013-06-02 01:59:00,41.4,32.7,28.61,North,0,9.2,9.2,71,0.00,CLR,,0.00,WeatherDisplay:10.37,2013-06-02 06:59:00,
2013-06-02 02:00:00,41.4,32.7,28.61,NNW,328,7.0,17.0,71,0.00,CLR,,0.00,WeatherDisplay:10.37,2013-06-02 07:00:00,
2013-06-02 02:01:00,41.4,32.3,28.61,SSW,202,17.3,17.3,70,0.00,CLR,,0.00,WeatherDisplay:10.37,2013-06-02 07:01:00,
2013-06-02 02:04:00,41.4,31.9,28.61,WNW,292,18.4,18.4,69,0.00,CLR,,0.00,WeatherDisplay:10.37,2013-06-02 07:04:00,
2013-06-02 02:05:00,41.2,31.8,28.61,NNW,338,12.8,12.8,69,0.00,CLR,,0.00,WeatherDisplay:10.37,2013-06-02 07:05:00,
2013-06-02 02:06:00,41.2,31.8,28.61,NW,315,13.8,13.8,69,0.00,CLR,,0.00,WeatherDisplay:10.37,2013-06-02 07:06:00,
2013-06-02 02:08:00,41.2,31.8,28.61,NW,315,17.3,17.3,69,0.00,CLR,,0.00,WeatherDisplay:10.37,2013-06-02 07:08:00,
2013-06-02 02:10:00,41.2,31.8,28.61,NNW,331,7.0,17.0,69,0.00,CLR,,0.00,WeatherDisplay:10.37,2013-06-02 07:10:00,
2013-06-02 02:11:00,41.2,31.8,28.61,NNW,338,10.4,10.4,69,0.00,CLR,,0.00,WeatherDisplay:10.37,2013-06-02 07:11:00,
2013-06-02 02:13:00,41.2,32.1,28.61,NNW,338,8.1,8.1,70,0.00,CLR,,0.00,WeatherDisplay:10.37,2013-06-02 07:13:00,
2013-06-02 02:15:00,41.0,31.6,28.61,NW,315,9.2,9.2,69,0.00,CLR,,0.00,WeatherDisplay:10.37,2013-06-02 07:15:00,
2013-06-02 02:16:00,41.0,32.0,28.61,NNW,338,10.9,10.9,70,0.00,CLR,,0.00,WeatherDisplay:10.37,2013-06-02 07:16:00,
2013-06-02 02:19:00,40.8,31.4,28.61,NW,315,9.2,9.2,69,0.00,CLR,,0.00,WeatherDisplay:10.37,2013-06-02 07:19:00,
2013-06-02 02:21:00,40.8,31.8,28.61,North,0,8.1,8.1,70,0.00,CLR,,0.00,WeatherDisplay:10.37,2013-06-02 07:21:00,
2013-06-02 02:22:00,40.8,31.8,28.61,North,0,8.1,8.1,70,0.00,CLR,,0.00,WeatherDisplay:10.37,2013-06-02 07:22:00,
2013-06-02 02:25:00,40.8,31.8,28.61,NW,315,10.4,10.4,70,0.00,CLR,,0.00,WeatherDisplay:10.37,2013-06-02 07:25:00,
2013-06-02 02:26:00,40.8,32.1,28.61,North,0,12.7,12.7,71,0.00,CLR,,0.00,WeatherDisplay:10.37,2013-06-02 07:26:00,
2013-06-02 02:27:00,40.8,32.1,28.61,NW,315,10.4,10.4,71,0.00,CLR,,0.00,WeatherDisplay:10.37,2013-06-02 07:27:00,
2013-06-02 02:30:00,40.8,32.1,28.61,WNW,292,9.2,9.2,71,0.00,CLR,,0.00,WeatherDisplay:10.37,2013-06-02 07:30:00,
2013-06-02 02:31:00,40.8,32.5,28.61,NNW,338,6.9,6.9,72,0.00,CLR,,0.00,WeatherDisplay:10.37,2013-06-02 07:31:00,
2013-06-02 02:32:00,40.8,32.5,28.61,NNE,22,9.2,9.2,72,0.00,CLR,,0.00,WeatherDisplay:10.37,2013-06-02 07:32:00,
2013-06-02 02:35:00,40.6,32.3,28.61,NW,315,9.2,9.2,72,0.00,CLR,,0.00,WeatherDisplay:10.37,2013-06-02 07:35:00,
2013-06-02 02:37:00,40.6,32.3,28.61,NW,315,11.5,11.5,72,0.00,CLR,,0.00,WeatherDisplay:10.37,2013-06-02 07:37:00,
2013-06-02 02:38:00,40.6,32.3,28.61,NNW,338,11.5,11.5,72,0.00,CLR,,0.00,WeatherDisplay:10.37,2013-06-02 07:38:00,
2013-06-02 02:41:00,40.6,32.3,28.61,NW,315,11.5,11.5,72,0.00,CLR,,0.00,WeatherDisplay:10.37,2013-06-02 07:41:00,
2013-06-02 02:42:00,40.6,32.3,28.61,NNW,338,8.1,8.1,72,0.00,CLR,,0.00,WeatherDisplay:10.37,2013-06-02 07:42:00,
2013-06-02 02:43:00,40.6,32.3,28.61,North,0,9.2,9.2,72,0.00,CLR,,0.00,WeatherDisplay:10.37,2013-06-02 07:43:00,
2013-06-02 02:46:00,40.6,32.0,28.61,NW,315,9.7,9.7,71,0.00,CLR,,0.00,WeatherDisplay:10.37,2013-06-02 07:46:00,
2013-06-02 02:47:00,40.6,31.6,28.61,NNW,338,10.4,10.4,70,0.00,CLR,,0.00,WeatherDisplay:10.37,2013-06-02 07:47:00,
2013-06-02 02:48:00,40.6,31.6,28.61,NW,315,12.7,12.7,70,0.00,CLR,,0.00,WeatherDisplay:10.37,2013-06-02 07:48:00,
2013-06-02 02:49:00,40.6,31.3,28.61,NW,315,12.7,12.7,69,0.00,CLR,,0.00,WeatherDisplay:10.37,2013-06-02 07:49:00,
2013-06-02 02:51:00,40.5,31.1,28.61,NW,315,12.7,12.7,69,0.00,CLR,,0.00,WeatherDisplay:10.37,2013-06-02 07:51:00,
2013-06-02 02:53:00,40.5,31.1,28.61,NW,315,12.7,12.7,69,0.00,CLR,,0.00,WeatherDisplay:10.37,2013-06-02 07:53:00,
2013-06-02 02:54:00,40.5,31.4,28.61,WNW,292,8.1,8.1,70,0.00,CLR,,0.00,WeatherDisplay:10.37,2013-06-02 07:54:00,
2013-06-02 02:56:00,40.5,31.1,28.61,WNW,292,12.7,12.7,69,0.00,CLR,,0.00,WeatherDisplay:10.37,2013-06-02 07:56:00,
2013-06-02 02:58:00,40.5,31.1,28.61,NW,315,13.8,13.8,69,0.00,CLR,,0.00,WeatherDisplay:10.37,2013-06-02 07:58:00,
2013-06-02 03:00:00,40.5,31.1,28.61,NW,315,10.4,10.4,69,0.00,CLR,,0.00,WeatherDisplay:10.37,2013-06-02 08:00:00,
2013-06-02 03:01:00,40.5,30.7,28.61,NW,315,15.0,15.0,68,0.00,CLR,,0.00,WeatherDisplay:10.37,2013-06-02 08:01:00,
2013-06-02 03:03:00,40.3,30.9,28.61,NW,315,11.5,11.5,69,0.00,CLR,,0.00,WeatherDisplay:10.37,2013-06-02 08:03:00,
2013-06-02 03:05:00,40.3,30.6,28.61,NE,45,10.9,10.9,68,0.00,CLR,,0.00,WeatherDisplay:10.37,2013-06-02 08:05:00,
2013-06-02 03:07:00,40.3,30.6,28.61,NNW,338,9.2,9.2,68,0.00,CLR,,0.00,WeatherDisplay:10.37,2013-06-02 08:07:00,
2013-06-02 03:08:00,40.3,30.9,28.61,North,0,10.4,10.4,69,0.00,CLR,,0.00,WeatherDisplay:10.37,2013-06-02 08:08:00,
2013-06-02 03:09:00,40.3,30.9,28.61,NNW,338,8.1,8.1,69,0.00,CLR,,0.00,WeatherDisplay:10.37,2013-06-02 08:09:00,
2013-06-02 03:10:00,40.3,30.9,28.61,NNW,338,8.1,8.1,69,0.00,CLR,,0.00,WeatherDisplay:10.37,2013-06-02 08:10:00,
2013-06-02 03:12:00,40.3,30.9,28.61,North,0,8.1,8.1,69,0.00,CLR,,0.00,WeatherDisplay:10.37,2013-06-02 08:12:00,
2013-06-02 03:14:00,40.3,30.9,28.61,WNW,292,10.5,10.5,69,0.00,CLR,,0.00,WeatherDisplay:10.37,2013-06-02 08:14:00,
2013-06-02 03:15:00,40.1,30.7,28.61,NW,315,10.4,10.4,69,0.00,CLR,,0.00,WeatherDisplay:10.37,2013-06-02 08:15:00,
2013-06-02 03:16:00,40.1,30.7,28.61,West,270,10.4,10.4,69,0.00,CLR,,0.00,WeatherDisplay:10.37,2013-06-02 08:16:00,
2013-06-02 03:18:00,40.1,31.1,28.61,NW,315,6.9,6.9,70,0.00,CLR,,0.00,WeatherDisplay:10.37,2013-06-02 08:18:00,
2013-06-02 03:19:00,40.1,31.1,28.61,WNW,292,11.4,11.4,70,0.00,CLR,,0.00,WeatherDisplay:10.37,2013-06-02 08:19:00,
2013-06-02 03:20:00,40.1,31.1,28.61,WNW,292,11.5,11.5,70,0.00,CLR,,0.00,WeatherDisplay:10.37,2013-06-02 08:20:00,
2013-06-02 03:22:00,40.1,31.1,28.61,NNW,338,5.8,5.8,70,0.00,CLR,,0.00,WeatherDisplay:10.37,2013-06-02 08:22:00,
2013-06-02 03:23:00,40.1,31.1,28.61,North,0,6.0,6.0,70,0.00,CLR,,0.00,WeatherDisplay:10.37,2013-06-02 08:23:00,
2013-06-02 03:24:00,40.1,31.1,28.61,NW,315,8.7,8.7,70,0.00,CLR,,0.00,WeatherDisplay:10.37,2013-06-02 08:24:00,
2013-06-02 03:25:00,39.9,30.9,28.61,North,0,9.2,9.2,70,0.00,CLR,,0.00,WeatherDisplay:10.37,2013-06-02 08:25:00,
2013-06-02 03:28:00,39.9,30.9,28.61,NW,315,8.1,8.5,70,0.00,CLR,,0.00,WeatherDisplay:10.37,2013-06-02 08:28:00,
2013-06-02 03:29:00,39.9,30.6,28.61,NNE,22,15.0,15.0,69,0.00,CLR,,0.00,WeatherDisplay:10.37,2013-06-02 08:29:00,
2013-06-02 03:30:00,39.9,30.6,28.61,NNW,338,15.0,15.0,69,0.00,CLR,,0.00,WeatherDisplay:10.37,2013-06-02 08:30:00,
2013-06-02 03:31:00,39.7,30.4,28.61,NW,315,12.7,12.7,69,0.00,CLR,,0.00,WeatherDisplay:10.37,2013-06-02 08:31:00,
2013-06-02 03:34:00,39.7,30.4,28.61,NNW,338,11.5,11.5,69,0.00,CLR,,0.00,WeatherDisplay:10.37,2013-06-02 08:34:00,
2013-06-02 03:35:00,39.6,29.9,28.61,NW,315,9.2,9.2,68,0.00,CLR,,0.00,WeatherDisplay:10.37,2013-06-02 08:35:00,
2013-06-02 03:36:00,39.6,29.9,28.61,NW,315,10.4,10.4,68,0.00,CLR,,0.00,WeatherDisplay:10.37,2013-06-02 08:36:00,
2013-06-02 03:39:00,39.0,28.2,28.61,NW,315,13.8,13.8,65,0.00,CLR,,0.00,WeatherDisplay:10.37,2013-06-02 08:39:00,
2013-06-02 03:40:00,39.0,28.2,28.61,NNW,338,10.4,10.4,65,0.00,CLR,,0.00,WeatherDisplay:10.37,2013-06-02 08:40:00,
2013-06-02 03:41:00,39.0,28.2,28.61,NW,315,11.5,11.5,65,0.00,CLR,,0.00,WeatherDisplay:10.37,2013-06-02 08:41:00,
2013-06-02 03:44:00,38.8,28.1,28.61,NNW,338,10.0,10.0,65,0.00,CLR,,0.00,WeatherDisplay:10.37,2013-06-02 08:44:00,
2013-06-02 03:45:00,38.7,27.9,28.61,NW,315,10.4,10.4,65,0.00,CLR,,0.00,WeatherDisplay:10.37,2013-06-02 08:45:00,
2013-06-02 03:46:00,38.7,27.9,28.61,North,0,10.4,10.4,65,0.00,CLR,,0.00,WeatherDisplay:10.37,2013-06-02 08:46:00,
2013-06-02 03:47:00,38.5,27.7,28.61,NW,315,12.7,12.7,65,0.00,CLR,,0.00,WeatherDisplay:10.37,2013-06-02 08:47:00,
2013-06-02 03:48:00,38.5,27.7,28.61,NNW,338,12.7,12.7,65,0.00,CLR,,0.00,WeatherDisplay:10.37,2013-06-02 08:48:00,
2013-06-02 03:50:00,38.3,27.6,28.61,North,0,11.5,11.5,65,0.00,CLR,,0.00,WeatherDisplay:10.37,2013-06-02 08:50:00,
2013-06-02 03:51:00,38.3,27.9,28.61,WNW,292,9.2,9.2,66,0.00,CLR,,0.00,WeatherDisplay:10.37,2013-06-02 08:51:00,
2013-06-02 03:53:00,38.3,28.3,28.61,North,0,10.4,10.4,67,0.00,CLR,,0.00,WeatherDisplay:10.37,2013-06-02 08:53:00,
2013-06-02 03:54:00,38.3,27.9,28.61,North,0,10.4,10.4,66,0.00,CLR,,0.00,WeatherDisplay:10.37,2013-06-02 08:54:00,
2013-06-02 03:55:00,38.1,27.4,28.64,WNW,292,10.4,10.4,65,0.00,CLR,,0.00,WeatherDisplay:10.37,2013-06-02 08:55:00,
2013-06-02 03:56:00,38.1,27.8,28.64,NNW,338,10.4,10.4,66,0.00,CLR,,0.00,WeatherDisplay:10.37,2013-06-02 08:56:00,
2013-06-02 03:57:00,38.1,27.8,28.64,NNW,338,9.2,9.2,66,0.00,CLR,,0.00,WeatherDisplay:10.37,2013-06-02 08:57:00,
2013-06-02 03:58:00,37.9,27.2,28.64,NNW,338,13.0,13.0,65,0.00,CLR,,0.00,WeatherDisplay:10.37,2013-06-02 08:58:00,
2013-06-02 03:59:00,37.9,27.2,28.64,NNW,338,13.0,13.0,65,0.00,CLR,,0.00,WeatherDisplay:10.37,2013-06-02 08:59:00,
2013-06-02 04:00:00,37.8,27.0,28.64,ENE,68,13.8,13.8,65,0.00,CLR,,0.00,WeatherDisplay:10.37,2013-06-02 09:00:00,
2013-06-02 04:01:00,37.8,27.0,28.64,North,0,10.4,10.4,65,0.00,CLR,,0.00,WeatherDisplay:10.37,2013-06-02 09:01:00,
2013-06-02 04:02:00,37.8,27.0,28.64,North,0,10.2,10.2,65,0.00,CLR,,0.00,WeatherDisplay:10.37,2013-06-02 09:02:00,
2013-06-02 04:03:00,37.8,27.4,28.64,NW,315,10.4,10.4,66,0.00,CLR,,0.00,WeatherDisplay:10.37,2013-06-02 09:03:00,
2013-06-02 04:04:00,37.8,27.4,28.64,North,0,10.4,10.4,66,0.00,CLR,,0.00,WeatherDisplay:10.37,2013-06-02 09:04:00,
2013-06-02 04:06:00,37.6,27.2,28.64,NW,315,12.7,12.7,66,0.00,CLR,,0.00,WeatherDisplay:10.37,2013-06-02 09:06:00,
2013-06-02 04:07:00,37.6,27.2,28.64,NNW,338,12.7,12.7,66,0.00,CLR,,0.00,WeatherDisplay:10.37,2013-06-02 09:07:00,
2013-06-02 04:09:00,37.4,26.7,28.64,WNW,292,11.5,11.5,65,0.00,CLR,,0.00,WeatherDisplay:10.37,2013-06-02 09:09:00,
2013-06-02 04:11:00,37.2,26.9,28.64,North,0,12.7,12.7,66,0.00,CLR,,0.00,WeatherDisplay:10.37,2013-06-02 09:11:00,
2013-06-02 04:12:00,37.2,26.9,28.64,NW,315,12.7,12.7,66,0.00,CLR,,0.00,WeatherDisplay:10.37,2013-06-02 09:12:00,
2013-06-02 04:14:00,37.0,27.1,28.64,NW,315,10.5,10.5,67,0.00,CLR,,0.00,WeatherDisplay:10.37,2013-06-02 09:14:00,
2013-06-02 04:15:00,37.0,26.7,28.64,NW,315,12.7,12.7,66,0.00,CLR,,0.00,WeatherDisplay:10.37,2013-06-02 09:15:00,
2013-06-02 04:16:00,37.0,27.1,28.64,WNW,292,11.5,11.5,67,0.00,CLR,,0.00,WeatherDisplay:10.37,2013-06-02 09:16:00,
2013-06-02 04:17:00,37.0,27.1,28.64,North,0,6.9,6.9,67,0.00,CLR,,0.00,WeatherDisplay:10.37,2013-06-02 09:17:00,
2013-06-02 04:18:00,37.0,27.1,28.64,NW,315,9.4,9.4,67,0.00,CLR,,0.00,WeatherDisplay:10.37,2013-06-02 09:18:00,
2013-06-02 04:19:00,37.0,27.1,28.64,NW,315,9.2,9.2,67,0.00,CLR,,0.00,WeatherDisplay:10.37,2013-06-02 09:19:00,
2013-06-02 04:20:00,37.0,27.5,28.64,North,0,8.1,8.1,68,0.00,CLR,,0.00,WeatherDisplay:10.37,2013-06-02 09:20:00,
2013-06-02 04:21:00,37.0,27.1,28.64,NNW,338,9.2,9.2,67,0.00,CLR,,0.00,WeatherDisplay:10.37,2013-06-02 09:21:00,
2013-06-02 04:22:00,37.0,27.1,28.64,NW,315,10.4,10.4,67,0.00,CLR,,0.00,WeatherDisplay:10.37,2013-06-02 09:22:00,
2013-06-02 04:24:00,36.9,27.3,28.64,North,0,10.4,10.4,68,0.00,CLR,,0.00,WeatherDisplay:10.37,2013-06-02 09:24:00,
2013-06-02 04:25:00,36.9,27.3,28.64,North,0,6.9,6.9,68,0.00,CLR,,0.00,WeatherDisplay:10.37,2013-06-02 09:25:00,
2013-06-02 04:27:00,36.9,27.3,28.64,North,0,9.2,9.2,68,0.00,CLR,,0.00,WeatherDisplay:10.37,2013-06-02 09:27:00,
2013-06-02 04:28:00,36.9,27.3,28.64,NW,315,10.0,10.0,68,0.00,CLR,,0.00,WeatherDisplay:10.37,2013-06-02 09:28:00,
2013-06-02 04:30:00,36.9,27.3,28.64,North,0,5.8,5.8,68,0.00,CLR,,0.00,WeatherDisplay:10.37,2013-06-02 09:30:00,
2013-06-02 04:31:00,36.7,27.1,28.64,North,0,8.1,8.1,68,0.00,CLR,,0.00,WeatherDisplay:10.37,2013-06-02 09:31:00,
2013-06-02 04:33:00,36.7,27.1,28.64,NNE,22,7.1,7.1,68,0.00,CLR,,0.00,WeatherDisplay:10.37,2013-06-02 09:33:00,
2013-06-02 04:35:00,36.5,26.6,28.64,NNW,338,11.5,11.5,67,0.00,CLR,,0.00,WeatherDisplay:10.37,2013-06-02 09:35:00,
2013-06-02 04:36:00,36.5,26.6,28.64,NNW,338,9.2,9.2,67,0.00,CLR,,0.00,WeatherDisplay:10.37,2013-06-02 09:36:00,
2013-06-02 04:38:00,36.5,26.6,28.64,North,0,11.5,11.5,67,0.00,CLR,,0.00,WeatherDisplay:10.37,2013-06-02 09:38:00,
2013-06-02 04:39:00,36.3,26.4,28.64,NW,315,11.5,11.5,67,0.00,CLR,,0.00,WeatherDisplay:10.37,2013-06-02 09:39:00,
2013-06-02 04:40:00,36.3,26.8,28.67,North,0,10.7,10.7,68,0.00,CLR,,0.00,WeatherDisplay:10.37,2013-06-02 09:40:00,
2013-06-02 04:41:00,36.3,26.8,28.67,North,0,10.4,10.4,68,0.00,CLR,,0.00,WeatherDisplay:10.37,2013-06-02 09:41:00,
2013-06-02 04:42:00,36.3,26.8,28.67,West,270,10.4,10.4,68,0.00,CLR,,0.00,WeatherDisplay:10.37,2013-06-02 09:42:00,
2013-06-02 04:43:00,36.3,26.8,28.67,North,0,10.4,10.4,68,0.00,CLR,,0.00,WeatherDisplay:10.37,2013-06-02 09:43:00,
2013-06-02 04:44:00,36.3,26.8,28.67,NW,315,8.1,8.1,68,0.00,CLR,,0.00,WeatherDisplay:10.37,2013-06-02 09:44:00,
2013-06-02 04:46:00,36.3,26.8,28.67,NNW,338,10.7,10.7,68,0.00,CLR,,0.00,WeatherDisplay:10.37,2013-06-02 09:46:00,
2013-06-02 04:47:00,36.3,27.1,28.67,ENE,68,11.5,11.5,69,0.00,CLR,,0.00,WeatherDisplay:10.37,2013-06-02 09:47:00,
2013-06-02 04:48:00,36.1,26.9,28.67,NNW,338,10.4,10.4,69,0.00,CLR,,0.00,WeatherDisplay:10.37,2013-06-02 09:48:00,
2013-06-02 04:50:00,36.1,26.9,28.67,WNW,292,10.7,10.7,69,0.00,CLR,,0.00,WeatherDisplay:10.37,2013-06-02 09:50:00,
2013-06-02 04:51:00,36.1,26.9,28.67,NNW,338,10.4,10.4,69,0.00,CLR,,0.00,WeatherDisplay:10.37,2013-06-02 09:51:00,
2013-06-02 04:52:00,36.1,26.9,28.67,NNW,338,10.4,10.4,69,0.00,CLR,,0.00,WeatherDisplay:10.37,2013-06-02 09:52:00,
2013-06-02 04:53:00,36.1,26.6,28.67,NW,315,10.4,10.4,68,0.00,CLR,,0.00,WeatherDisplay:10.37,2013-06-02 09:53:00,
2013-06-02 04:55:00,36.1,26.9,28.67,WNW,292,8.1,8.1,69,0.00,CLR,,0.00,WeatherDisplay:10.37,2013-06-02 09:55:00,
2013-06-02 04:56:00,36.0,26.8,28.67,North,0,8.1,8.1,69,0.00,CLR,,0.00,WeatherDisplay:10.37,2013-06-02 09:56:00,
2013-06-02 04:57:00,36.0,27.1,28.67,North,0,5.8,5.8,70,0.00,CLR,,0.00,WeatherDisplay:10.37,2013-06-02 09:57:00,
2013-06-02 04:58:00,36.0,27.1,28.67,NNW,338,8.7,8.7,70,0.00,CLR,,0.00,WeatherDisplay:10.37,2013-06-02 09:58:00,
2013-06-02 05:00:00,36.0,27.1,28.67,NW,315,9.2,9.2,70,0.00,CLR,,0.00,WeatherDisplay:10.37,2013-06-02 10:00:00,
2013-06-02 05:02:00,36.0,27.1,28.67,North,0,8.1,8.1,70,0.00,CLR,,0.00,WeatherDisplay:10.37,2013-06-02 10:02:00,
2013-06-02 05:03:00,36.0,27.5,28.67,WNW,292,10.4,10.4,71,0.00,CLR,,0.00,WeatherDisplay:10.37,2013-06-02 10:03:00,
2013-06-02 05:04:00,36.0,27.5,28.67,NNW,338,10.4,10.4,71,0.00,CLR,,0.00,WeatherDisplay:10.37,2013-06-02 10:04:00,
2013-06-02 05:05:00,35.8,26.9,28.67,NW,315,10.4,10.4,70,0.00,CLR,,0.00,WeatherDisplay:10.37,2013-06-02 10:05:00,
2013-06-02 05:08:00,35.8,26.9,28.67,North,0,10.4,10.4,70,0.00,CLR,,0.00,WeatherDisplay:10.37,2013-06-02 10:08:00,
2013-06-02 05:09:00,35.8,26.6,28.67,NE,45,15.0,15.0,69,0.00,CLR,,0.00,WeatherDisplay:10.37,2013-06-02 10:09:00,
2013-06-02 05:11:00,35.8,26.9,28.67,NW,315,9.2,9.2,70,0.00,CLR,,0.00,WeatherDisplay:10.37,2013-06-02 10:11:00,
2013-06-02 05:13:00,35.8,26.9,28.67,North,0,10.4,10.4,70,0.00,CLR,,0.00,WeatherDisplay:10.37,2013-06-02 10:13:00,
2013-06-02 05:14:00,35.6,26.8,28.67,WNW,292,10.4,10.4,70,0.00,CLR,,0.00,WeatherDisplay:10.37,2013-06-02 10:14:00,
2013-06-02 05:15:00,35.7,26.8,28.67,NNW,333,8.0,11.0,70,0.00,CLR,,0.00,WeatherDisplay:10.37,2013-06-02 10:15:00,
2013-06-02 05:17:00,35.6,26.4,28.67,NW,315,12.7,12.7,69,0.00,CLR,,0.00,WeatherDisplay:10.37,2013-06-02 10:17:00,
2013-06-02 05:18:00,35.6,26.4,28.67,North,0,10.4,10.4,69,0.00,CLR,,0.00,WeatherDisplay:10.37,2013-06-02 10:18:00,
2013-06-02 05:20:00,35.6,26.8,28.67,WNW,292,9.2,9.2,70,0.00,CLR,,0.00,WeatherDisplay:10.37,2013-06-02 10:20:00,
2013-06-02 05:21:00,35.6,26.8,28.67,NNW,338,10.4,10.4,70,0.00,CLR,,0.00,WeatherDisplay:10.37,2013-06-02 10:21:00,
2013-06-02 05:23:00,35.6,26.4,28.67,NNW,338,10.4,10.4,69,0.00,CLR,,0.00,WeatherDisplay:10.37,2013-06-02 10:23:00,
2013-06-02 05:25:00,35.6,26.4,28.67,NNE,22,9.2,9.2,69,0.00,CLR,,0.00,WeatherDisplay:10.37,2013-06-02 10:25:00,
2013-06-02 05:26:00,35.6,26.4,28.67,NNW,338,5.8,5.8,69,0.00,CLR,,0.00,WeatherDisplay:10.37,2013-06-02 10:26:00,
2013-06-02 05:28:00,35.6,26.4,28.67,NW,315,12.1,12.1,69,0.00,CLR,,0.00,WeatherDisplay:10.37,2013-06-02 10:28:00,
2013-06-02 05:29:00,35.6,26.4,28.67,NW,315,11.5,11.5,69,0.00,CLR,,0.00,WeatherDisplay:10.37,2013-06-02 10:29:00,
2013-06-02 05:30:00,35.6,26.4,28.67,NNW,338,11.5,11.5,69,0.00,CLR,,0.00,WeatherDisplay:10.37,2013-06-02 10:30:00,
2013-06-02 05:31:00,35.6,26.4,28.67,NW,315,11.5,11.5,69,0.00,CLR,,0.00,WeatherDisplay:10.37,2013-06-02 10:31:00,
2013-06-02 05:33:00,35.6,26.4,28.67,NW,315,10.4,10.4,69,0.00,CLR,,0.00,WeatherDisplay:10.37,2013-06-02 10:33:00,
2013-06-02 05:34:00,35.6,26.4,28.67,North,0,8.1,8.1,69,0.00,CLR,,0.00,WeatherDisplay:10.37,2013-06-02 10:34:00,
2013-06-02 05:35:00,35.6,26.4,28.67,NW,315,9.2,9.2,69,0.00,CLR,,0.00,WeatherDisplay:10.37,2013-06-02 10:35:00,
2013-06-02 05:36:00,35.6,26.1,28.67,NNW,338,15.0,15.0,68,0.00,CLR,,0.00,WeatherDisplay:10.37,2013-06-02 10:36:00,
2013-06-02 05:37:00,35.6,26.1,28.67,NNW,338,15.0,15.0,68,0.00,CLR,,0.00,WeatherDisplay:10.37,2013-06-02 10:37:00,
2013-06-02 05:39:00,35.6,26.1,28.67,NW,315,11.5,11.5,68,0.00,CLR,,0.00,WeatherDisplay:10.37,2013-06-02 10:39:00,
2013-06-02 05:41:00,35.6,26.1,28.67,NNE,22,12.7,12.7,68,0.00,CLR,,0.00,WeatherDisplay:10.37,2013-06-02 10:41:00,
2013-06-02 05:42:00,35.6,26.1,28.67,NNW,338,10.4,10.4,68,0.00,CLR,,0.00,WeatherDisplay:10.37,2013-06-02 10:42:00,
2013-06-02 05:44:00,35.6,26.4,28.67,North,0,8.1,8.1,69,0.00,CLR,,0.00,WeatherDisplay:10.37,2013-06-02 10:44:00,
2013-06-02 05:45:00,35.6,26.4,28.67,NNW,345,5.0,13.0,69,0.00,CLR,,0.00,WeatherDisplay:10.37,2013-06-02 10:45:00,
2013-06-02 05:47:00,35.6,26.4,28.67,NNE,22,8.1,8.1,69,0.00,CLR,,0.00,WeatherDisplay:10.37,2013-06-02 10:47:00,
2013-06-02 05:48:00,35.6,26.1,28.67,North,0,9.2,9.2,68,0.00,CLR,,0.00,WeatherDisplay:10.37,2013-06-02 10:48:00,
2013-06-02 05:50:00,35.6,26.1,28.67,NNW,338,9.2,9.2,68,0.00,CLR,,0.00,WeatherDisplay:10.37,2013-06-02 10:50:00,
2013-06-02 05:52:00,35.6,26.1,28.67,WNW,292,8.1,8.1,68,0.00,CLR,,0.00,WeatherDisplay:10.37,2013-06-02 10:52:00,
2013-06-02 05:53:00,35.6,26.1,28.67,NW,315,10.4,10.4,68,0.00,CLR,,0.00,WeatherDisplay:10.37,2013-06-02 10:53:00,
2013-06-02 05:55:00,35.6,26.1,28.67,NNE,22,6.9,6.9,68,0.00,CLR,,0.00,WeatherDisplay:10.37,2013-06-02 10:55:00,
2013-06-02 05:57:00,35.8,26.2,28.67,North,0,6.9,6.9,68,0.00,CLR,,0.00,WeatherDisplay:10.37,2013-06-02 10:57:00,
2013-06-02 05:59:00,35.8,26.2,28.67,NNE,22,8.1,8.1,68,0.00,CLR,,0.00,WeatherDisplay:10.37,2013-06-02 10:59:00,
2013-06-02 06:00:00,35.6,26.1,28.67,NNE,22,13.8,13.8,68,0.00,CLR,,0.00,WeatherDisplay:10.37,2013-06-02 11:00:00,
2013-06-02 06:01:00,35.6,25.7,28.67,NNW,338,12.7,12.7,67,0.00,CLR,,0.00,WeatherDisplay:10.37,2013-06-02 11:01:00,
2013-06-02 06:02:00,35.6,25.7,28.67,NW,315,8.1,8.1,67,0.00,CLR,,0.00,WeatherDisplay:10.37,2013-06-02 11:02:00,
2013-06-02 06:04:00,35.6,26.1,28.67,North,0,12.7,12.7,68,0.00,CLR,,0.00,WeatherDisplay:10.37,2013-06-02 11:04:00,
2013-06-02 06:05:00,35.6,25.7,28.67,NNE,22,15.0,15.0,67,0.00,CLR,,0.00,WeatherDisplay:10.37,2013-06-02 11:05:00,
2013-06-02 06:06:00,35.6,25.7,28.67,NNW,338,12.7,12.7,67,0.00,CLR,,0.00,WeatherDisplay:10.37,2013-06-02 11:06:00,
2013-06-02 06:08:00,35.6,25.7,28.67,WNW,292,8.5,8.5,67,0.00,CLR,,0.00,WeatherDisplay:10.37,2013-06-02 11:08:00,
2013-06-02 06:09:00,35.6,25.7,28.67,North,0,11.5,11.5,67,0.00,CLR,,0.00,WeatherDisplay:10.37,2013-06-02 11:09:00,
2013-06-02 06:10:00,35.6,25.7,28.67,North,0,12.7,12.7,67,0.00,CLR,,0.00,WeatherDisplay:10.37,2013-06-02 11:10:00,
2013-06-02 06:11:00,35.6,25.7,28.67,WNW,292,10.4,11.8,67,0.00,CLR,,0.00,WeatherDisplay:10.37,2013-06-02 11:11:00,
2013-06-02 06:13:00,35.6,25.7,28.67,NW,315,6.9,6.9,67,0.00,CLR,,0.00,WeatherDisplay:10.37,2013-06-02 11:13:00,
2013-06-02 06:14:00,35.6,26.1,28.67,WNW,292,5.8,5.8,68,0.00,CLR,,0.00,WeatherDisplay:10.37,2013-06-02 11:14:00,
2013-06-02 06:15:00,35.6,26.1,28.67,NW,315,7.6,7.6,68,0.00,CLR,,0.00,WeatherDisplay:10.37,2013-06-02 11:15:00,
2013-06-02 06:16:00,35.4,25.9,28.67,North,0,8.1,8.1,68,0.00,CLR,,0.00,WeatherDisplay:10.37,2013-06-02 11:16:00,
2013-06-02 06:19:00,35.6,26.1,28.67,WNW,292,10.4,10.4,68,0.00,CLR,,0.00,WeatherDisplay:10.37,2013-06-02 11:19:00,
2013-06-02 06:20:00,35.6,26.1,28.67,West,270,10.4,10.4,68,0.00,CLR,,0.00,WeatherDisplay:10.37,2013-06-02 11:20:00,
2013-06-02 06:22:00,35.6,26.4,28.67,NW,315,6.9,6.9,69,0.00,CLR,,0.00,WeatherDisplay:10.37,2013-06-02 11:22:00,
2013-06-02 06:25:00,35.8,26.2,28.70,WNW,292,9.2,9.2,68,0.00,CLR,,0.00,WeatherDisplay:10.37,2013-06-02 11:25:00,
2013-06-02 06:28:00,36.0,26.4,28.70,North,0,8.1,8.1,68,0.00,CLR,,0.00,WeatherDisplay:10.37,2013-06-02 11:28:00,
2013-06-02 06:30:00,36.0,26.4,28.70,North,0,9.2,9.2,68,0.00,CLR,,0.00,WeatherDisplay:10.37,2013-06-02 11:30:00,
2013-06-02 06:31:00,36.0,26.4,28.70,NW,315,9.2,9.2,68,0.00,CLR,,0.00,WeatherDisplay:10.37,2013-06-02 11:31:00,
2013-06-02 06:33:00,36.0,26.4,28.70,NW,315,13.8,13.8,68,0.00,CLR,,0.00,WeatherDisplay:10.37,2013-06-02 11:33:00,
2013-06-02 06:34:00,36.0,26.4,28.70,NW,315,9.2,9.2,68,0.00,CLR,,0.00,WeatherDisplay:10.37,2013-06-02 11:34:00,
2013-06-02 06:35:00,36.0,26.1,28.70,NNW,338,8.5,8.5,67,0.00,CLR,,0.00,WeatherDisplay:10.37,2013-06-02 11:35:00,
2013-06-02 06:36:00,36.0,26.1,28.70,NW,315,8.1,8.1,67,0.00,CLR,,0.00,WeatherDisplay:10.37,2013-06-02 11:36:00,
2013-06-02 06:38:00,36.0,26.4,28.70,NNE,22,9.2,9.2,68,0.00,CLR,,0.00,WeatherDisplay:10.37,2013-06-02 11:38:00,
2013-06-02 06:39:00,36.1,26.2,28.73,NW,315,8.1,8.1,67,0.00,CLR,,0.00,WeatherDisplay:10.37,2013-06-02 11:39:00,
2013-06-02 06:41:00,36.1,26.6,28.73,WNW,292,8.1,8.1,68,0.00,CLR,,0.00,WeatherDisplay:10.37,2013-06-02 11:41:00,
2013-06-02 06:43:00,36.1,26.2,28.73,NW,315,10.4,10.4,67,0.00,CLR,,0.00,WeatherDisplay:10.37,2013-06-02 11:43:00,
2013-06-02 06:45:00,36.1,26.2,28.73,NW,321,7.0,11.0,67,0.00,CLR,,0.00,WeatherDisplay:10.37,2013-06-02 11:45:00,
2013-06-02 06:46:00,36.1,26.2,28.73,North,0,9.2,9.2,67,0.00,CLR,,0.00,WeatherDisplay:10.37,2013-06-02 11:46:00,
2013-06-02 06:48:00,36.1,26.6,28.73,NNW,338,10.5,10.5,68,0.00,CLR,,0.00,WeatherDisplay:10.37,2013-06-02 11:48:00,
2013-06-02 06:50:00,36.1,26.2,28.73,West,270,10.4,10.4,67,0.00,CLR,,0.00,WeatherDisplay:10.37,2013-06-02 11:50:00,
2013-06-02 06:51:00,36.1,26.2,28.73,North,0,10.4,10.4,67,0.00,CLR,,0.00,WeatherDisplay:10.37,2013-06-02 11:51:00,
2013-06-02 06:52:00,36.1,26.2,28.73,NNE,22,10.4,10.4,67,0.00,CLR,,0.00,WeatherDisplay:10.37,2013-06-02 11:52:00,
2013-06-02 06:54:00,36.1,26.2,28.73,NNW,338,11.5,11.5,67,0.00,CLR,,0.00,WeatherDisplay:10.37,2013-06-02 11:54:00,
2013-06-02 06:55:00,36.1,26.2,28.70,NW,315,10.4,10.4,67,0.00,CLR,,0.00,WeatherDisplay:10.37,2013-06-02 11:55:00,
2013-06-02 06:56:00,36.1,26.2,28.70,WSW,248,10.9,10.9,67,0.00,CLR,,0.00,WeatherDisplay:10.37,2013-06-02 11:56:00,
2013-06-02 06:58:00,36.3,26.4,28.70,NNE,22,11.5,11.5,67,0.00,CLR,,0.00,WeatherDisplay:10.37,2013-06-02 11:58:00,
2013-06-02 06:59:00,36.5,26.9,28.70,NNW,338,6.9,6.9,68,0.00,CLR,,0.00,WeatherDisplay:10.37,2013-06-02 11:59:00,
2013-06-02 07:00:00,36.3,26.4,28.70,North,0,10.7,10.7,67,0.00,CLR,,0.00,WeatherDisplay:10.37,2013-06-02 12:00:00,
2013-06-02 07:01:00,36.5,26.6,28.70,NNW,338,10.4,10.4,67,0.00,CLR,,0.00,WeatherDisplay:10.37,2013-06-02 12:01:00,
2013-06-02 07:03:00,36.5,26.6,28.70,NNW,338,5.8,5.8,67,0.00,CLR,,0.00,WeatherDisplay:10.37,2013-06-02 12:03:00,
2013-06-02 07:04:00,36.7,27.1,28.70,North,0,6.9,6.9,68,0.00,CLR,,0.00,WeatherDisplay:10.37,2013-06-02 12:04:00,
2013-06-02 07:05:00,36.5,26.9,28.70,NNW,338,6.2,6.2,68,0.00,CLR,,0.00,WeatherDisplay:10.37,2013-06-02 12:05:00,
2013-06-02 07:06:00,36.7,26.7,28.70,North,0,6.9,6.9,67,0.00,CLR,,0.00,WeatherDisplay:10.37,2013-06-02 12:06:00,
2013-06-02 07:08:00,36.7,27.1,28.70,NNW,338,6.0,6.0,68,0.00,CLR,,0.00,WeatherDisplay:10.37,2013-06-02 12:08:00,
2013-06-02 07:09:00,36.7,27.1,28.70,NNW,338,6.9,6.9,68,0.00,CLR,,0.00,WeatherDisplay:10.37,2013-06-02 12:09:00,
2013-06-02 07:11:00,36.5,26.2,28.70,WNW,292,8.5,9.8,66,0.00,CLR,,0.00,WeatherDisplay:10.37,2013-06-02 12:11:00,
2013-06-02 07:12:00,36.5,26.2,28.70,NW,315,12.7,12.7,66,0.00,CLR,,0.00,WeatherDisplay:10.37,2013-06-02 12:12:00,
2013-06-02 07:13:00,36.5,26.2,28.70,NNW,338,10.4,10.4,66,0.00,CLR,,0.00,WeatherDisplay:10.37,2013-06-02 12:13:00,
2013-06-02 07:14:00,36.3,26.0,28.70,North,0,10.9,10.9,66,0.00,CLR,,0.00,WeatherDisplay:10.37,2013-06-02 12:14:00,
2013-06-02 07:15:00,36.3,26.0,28.70,NNW,338,13.8,13.8,66,0.00,CLR,,0.00,WeatherDisplay:10.37,2013-06-02 12:15:00,
2013-06-02 07:16:00,36.3,26.0,28.70,NW,315,11.5,11.5,66,0.00,CLR,,0.00,WeatherDisplay:10.37,2013-06-02 12:16:00,
2013-06-02 07:17:00,36.5,26.2,28.70,NNW,338,8.1,8.1,66,0.00,CLR,,0.00,WeatherDisplay:10.37,2013-06-02 12:17:00,
2013-06-02 07:18:00,36.5,26.2,28.70,WNW,292,8.1,8.1,66,0.00,CLR,,0.00,WeatherDisplay:10.37,2013-06-02 12:18:00,
2013-06-02 07:20:00,36.5,26.6,28.70,North,0,13.8,13.8,67,0.00,CLR,,0.00,WeatherDisplay:10.37,2013-06-02 12:20:00,
2013-06-02 07:22:00,36.5,25.8,28.70,NNE,22,11.5,11.5,65,0.00,CLR,,0.00,WeatherDisplay:10.37,2013-06-02 12:22:00,
2013-06-02 07:23:00,36.5,25.8,28.70,NNW,338,11.5,11.5,65,0.00,CLR,,0.00,WeatherDisplay:10.37,2013-06-02 12:23:00,
2013-06-02 07:24:00,36.5,25.8,28.70,NNW,338,9.4,9.4,65,0.00,CLR,,0.00,WeatherDisplay:10.37,2013-06-02 12:24:00,
2013-06-02 07:25:00,36.7,26.4,28.73,NW,315,9.2,9.2,66,0.00,CLR,,0.00,WeatherDisplay:10.37,2013-06-02 12:25:00,
2013-06-02 07:27:00,36.5,25.8,28.73,North,0,17.3,17.3,65,0.00,CLR,,0.00,WeatherDisplay:10.37,2013-06-02 12:27:00,
2013-06-02 07:28:00,36.7,26.4,28.73,NNE,22,12.7,12.7,66,0.00,CLR,,0.00,WeatherDisplay:10.37,2013-06-02 12:28:00,
2013-06-02 07:29:00,36.7,26.4,28.73,NNE,22,12.7,12.7,66,0.00,CLR,,0.00,WeatherDisplay:10.37,2013-06-02 12:29:00,
2013-06-02 07:30:00,36.7,26.4,28.73,North,0,9.2,9.2,66,0.00,CLR,,0.00,WeatherDisplay:10.37,2013-06-02 12:30:00,
2013-06-02 07:33:00,36.9,26.9,28.73,NW,315,5.8,5.8,67,0.00,CLR,,0.00,WeatherDisplay:10.37,2013-06-02 12:33:00,
2013-06-02 07:34:00,36.9,26.9,28.73,NW,315,8.1,8.1,67,0.00,CLR,,0.00,WeatherDisplay:10.37,2013-06-02 12:34:00,
2013-06-02 07:35:00,37.0,27.1,28.73,NW,315,12.7,12.7,67,0.00,CLR,,0.00,WeatherDisplay:10.37,2013-06-02 12:35:00,
2013-06-02 07:38:00,37.0,26.4,28.73,North,0,11.5,11.5,65,0.00,CLR,,0.00,WeatherDisplay:10.37,2013-06-02 12:38:00,
2013-06-02 07:39:00,37.0,26.4,28.73,North,0,11.5,11.5,65,0.00,CLR,,0.00,WeatherDisplay:10.37,2013-06-02 12:39:00,
2013-06-02 07:40:00,37.0,26.4,28.73,NNW,341,8.0,14.0,65,0.00,CLR,,0.00,WeatherDisplay:10.37,2013-06-02 12:40:00,
2013-06-02 07:41:00,37.0,26.0,28.73,NNW,338,10.7,10.7,64,0.00,CLR,,0.00,WeatherDisplay:10.37,2013-06-02 12:41:00,
2013-06-02 07:44:00,37.0,26.0,28.73,NNW,338,9.2,9.2,64,0.00,CLR,,0.00,WeatherDisplay:10.37,2013-06-02 12:44:00,
2013-06-02 07:45:00,37.0,26.0,28.73,NNW,341,8.0,14.0,64,0.00,CLR,,0.00,WeatherDisplay:10.37,2013-06-02 12:45:00,
2013-06-02 07:47:00,37.0,25.6,28.73,North,0,15.0,15.0,63,0.00,CLR,,0.00,WeatherDisplay:10.37,2013-06-02 12:47:00,
2013-06-02 07:49:00,37.0,25.6,28.73,NW,315,12.7,12.7,63,0.00,CLR,,0.00,WeatherDisplay:10.37,2013-06-02 12:49:00,
2013-06-02 07:50:00,37.0,26.0,28.73,NW,315,11.2,11.2,64,0.00,CLR,,0.00,WeatherDisplay:10.37,2013-06-02 12:50:00,
2013-06-02 07:51:00,37.0,26.0,28.73,NW,315,14.5,14.5,64,0.00,CLR,,0.00,WeatherDisplay:10.37,2013-06-02 12:51:00,
2013-06-02 07:52:00,37.0,25.6,28.73,NNE,22,15.0,15.0,63,0.00,CLR,,0.00,WeatherDisplay:10.37,2013-06-02 12:52:00,
2013-06-02 07:54:00,37.2,26.2,28.73,NNW,338,13.0,13.0,64,0.00,CLR,,0.00,WeatherDisplay:10.37,2013-06-02 12:54:00,
2013-06-02 07:55:00,37.4,26.3,28.76,North,0,12.7,12.7,64,0.00,CLR,,0.00,WeatherDisplay:10.37,2013-06-02 12:55:00,
2013-06-02 07:56:00,37.4,26.3,28.76,NNE,22,10.4,10.4,64,0.00,CLR,,0.00,WeatherDisplay:10.37,2013-06-02 12:56:00,
2013-06-02 07:58:00,37.8,26.7,28.76,NW,315,6.9,6.9,64,0.00,CLR,,0.00,WeatherDisplay:10.37,2013-06-02 12:58:00,
2013-06-02 07:59:00,37.8,26.7,28.76,NW,315,6.9,6.9,64,0.00,CLR,,0.00,WeatherDisplay:10.37,2013-06-02 12:59:00,
2013-06-02 08:01:00,37.9,26.8,28.76,NW,315,5.8,5.8,64,0.00,CLR,,0.00,WeatherDisplay:10.37,2013-06-02 13:01:00,
2013-06-02 08:02:00,37.9,26.5,28.76,NNW,338,10.4,10.4,63,0.00,CLR,,0.00,WeatherDisplay:10.37,2013-06-02 13:02:00,
2013-06-02 08:04:00,38.1,26.6,28.76,North,0,8.1,8.1,63,0.00,CLR,,0.00,WeatherDisplay:10.37,2013-06-02 13:04:00,
2013-06-02 08:05:00,38.1,26.6,28.76,NW,315,8.1,8.1,63,0.00,CLR,,0.00,WeatherDisplay:10.37,2013-06-02 13:05:00,
2013-06-02 08:06:00,37.9,26.1,28.76,NNW,338,8.1,8.1,62,0.00,CLR,,0.00,WeatherDisplay:10.37,2013-06-02 13:06:00,
2013-06-02 08:07:00,37.9,26.1,28.76,NW,315,8.1,8.1,62,0.00,CLR,,0.00,WeatherDisplay:10.37,2013-06-02 13:07:00,
2013-06-02 08:08:00,37.9,26.1,28.76,North,0,14.5,14.5,62,0.00,CLR,,0.00,WeatherDisplay:10.37,2013-06-02 13:08:00,
2013-06-02 08:09:00,37.9,26.1,28.76,North,0,15.0,15.0,62,0.00,CLR,,0.00,WeatherDisplay:10.37,2013-06-02 13:09:00,
2013-06-02 08:10:00,37.8,26.3,28.76,NW,315,10.9,10.9,63,0.00,CLR,,0.00,WeatherDisplay:10.37,2013-06-02 13:10:00,
2013-06-02 08:11:00,37.6,25.7,28.76,NNE,22,13.8,13.8,62,0.00,CLR,,0.00,WeatherDisplay:10.37,2013-06-02 13:11:00,
2013-06-02 08:12:00,37.6,25.7,28.76,NNW,338,13.8,13.8,62,0.00,CLR,,0.00,WeatherDisplay:10.37,2013-06-02 13:12:00,
2013-06-02 08:13:00,37.8,26.3,28.76,North,0,10.4,10.4,63,0.00,CLR,,0.00,WeatherDisplay:10.37,2013-06-02 13:13:00,
2013-06-02 08:14:00,37.8,26.3,28.76,NW,315,10.4,10.4,63,0.00,CLR,,0.00,WeatherDisplay:10.37,2013-06-02 13:14:00,
2013-06-02 08:16:00,37.9,26.5,28.76,NNW,338,10.4,10.4,63,0.00,CLR,,0.00,WeatherDisplay:10.37,2013-06-02 13:16:00,
2013-06-02 08:17:00,37.8,25.9,28.76,North,0,10.4,10.4,62,0.00,CLR,,0.00,WeatherDisplay:10.37,2013-06-02 13:17:00,
2013-06-02 08:18:00,38.1,26.6,28.76,NW,315,9.2,9.2,63,0.00,CLR,,0.00,WeatherDisplay:10.37,2013-06-02 13:18:00,
2013-06-02 08:19:00,38.1,26.6,28.76,NNE,22,6.9,6.9,63,0.00,CLR,,0.00,WeatherDisplay:10.37,2013-06-02 13:19:00,
2013-06-02 08:21:00,38.3,26.8,28.76,NNW,338,8.1,8.1,63,0.00,CLR,,0.00,WeatherDisplay:10.37,2013-06-02 13:21:00,
2013-06-02 08:23:00,38.3,26.8,28.76,NNW,338,10.4,10.4,63,0.00,CLR,,0.00,WeatherDisplay:10.37,2013-06-02 13:23:00,
2013-06-02 08:24:00,38.1,25.8,28.76,NW,315,10.4,10.4,61,0.00,CLR,,0.00,WeatherDisplay:10.37,2013-06-02 13:24:00,
2013-06-02 08:27:00,38.1,25.8,28.76,NNW,338,10.2,10.2,61,0.00,CLR,,0.00,WeatherDisplay:10.37,2013-06-02 13:27:00,
2013-06-02 08:28:00,38.3,26.4,28.76,NNW,338,10.4,10.4,62,0.00,CLR,,0.00,WeatherDisplay:10.37,2013-06-02 13:28:00,
2013-06-02 08:29:00,38.3,26.4,28.76,NW,315,12.7,12.7,62,0.00,CLR,,0.00,WeatherDisplay:10.37,2013-06-02 13:29:00,
2013-06-02 08:32:00,38.5,26.2,28.76,North,0,9.2,9.2,61,0.00,CLR,,0.00,WeatherDisplay:10.37,2013-06-02 13:32:00,
2013-06-02 08:33:00,38.5,26.6,28.76,North,0,8.1,8.1,62,0.00,CLR,,0.00,WeatherDisplay:10.37,2013-06-02 13:33:00,
2013-06-02 08:34:00,38.7,26.8,28.76,NW,315,8.1,8.1,62,0.00,CLR,,0.00,WeatherDisplay:10.37,2013-06-02 13:34:00,
2013-06-02 08:35:00,38.7,26.8,28.76,NNW,342,6.0,13.0,62,0.00,CLR,,0.00,WeatherDisplay:10.37,2013-06-02 13:35:00,
2013-06-02 08:38:00,38.5,26.2,28.76,NW,315,13.2,13.2,61,0.00,CLR,,0.00,WeatherDisplay:10.37,2013-06-02 13:38:00,
2013-06-02 08:39:00,38.5,26.2,28.76,NNW,338,13.8,13.8,61,0.00,CLR,,0.00,WeatherDisplay:10.37,2013-06-02 13:39:00,
2013-06-02 08:40:00,38.5,26.2,28.76,NNW,338,13.8,13.8,61,0.00,CLR,,0.00,WeatherDisplay:10.37,2013-06-02 13:40:00,
2013-06-02 08:44:00,38.5,27.0,28.76,NNW,338,11.2,11.2,63,0.00,CLR,,0.00,WeatherDisplay:10.37,2013-06-02 13:44:00,
2013-06-02 08:45:00,38.5,26.6,28.76,North,0,11.5,11.5,62,0.00,CLR,,0.00,WeatherDisplay:10.37,2013-06-02 13:45:00,
2013-06-02 08:46:00,38.5,27.0,28.76,North,0,8.1,8.1,63,0.00,CLR,,0.00,WeatherDisplay:10.37,2013-06-02 13:46:00,
2013-06-02 08:49:00,39.0,27.5,28.76,NNW,338,12.5,12.5,63,0.00,CLR,,0.00,WeatherDisplay:10.37,2013-06-02 13:49:00,
2013-06-02 08:50:00,39.0,27.5,28.76,NW,315,12.7,12.7,63,0.00,CLR,,0.00,WeatherDisplay:10.37,2013-06-02 13:50:00,
2013-06-02 08:51:00,39.2,27.3,28.76,NNW,338,12.7,12.7,62,0.00,CLR,,0.00,WeatherDisplay:10.37,2013-06-02 13:51:00,
2013-06-02 08:52:00,39.2,27.3,28.76,WNW,292,12.7,12.7,62,0.00,CLR,,0.00,WeatherDisplay:10.37,2013-06-02 13:52:00,
2013-06-02 08:54:00,39.0,27.5,28.79,North,0,10.5,10.5,63,0.00,CLR,,0.00,WeatherDisplay:10.37,2013-06-02 13:54:00,
2013-06-02 08:55:00,38.8,26.9,28.79,NW,315,10.4,10.4,62,0.00,CLR,,0.00,WeatherDisplay:10.37,2013-06-02 13:55:00,
2013-06-02 08:56:00,39.0,27.5,28.79,NNW,338,10.4,10.4,63,0.00,CLR,,0.00,WeatherDisplay:10.37,2013-06-02 13:56:00,
2013-06-02 08:57:00,39.2,27.7,28.79,NNW,338,6.4,6.4,63,0.00,CLR,,0.00,WeatherDisplay:10.37,2013-06-02 13:57:00,
2013-06-02 09:00:00,39.2,27.7,28.79,North,0,10.4,10.4,63,0.00,CLR,,0.00,WeatherDisplay:10.37,2013-06-02 14:00:00,
2013-06-02 09:02:00,39.0,27.1,28.79,North,0,10.4,10.4,62,0.00,CLR,,0.00,WeatherDisplay:10.37,2013-06-02 14:02:00,
2013-06-02 09:05:00,39.0,26.7,28.79,North,0,10.4,10.4,61,0.00,CLR,,0.00,WeatherDisplay:10.37,2013-06-02 14:05:00,
2013-06-02 09:06:00,39.0,27.1,28.79,NNW,338,9.2,9.2,62,0.00,CLR,,0.00,WeatherDisplay:10.37,2013-06-02 14:06:00,
2013-06-02 09:07:00,39.0,25.9,28.79,NNW,338,16.1,16.1,59,0.00,CLR,,0.00,WeatherDisplay:10.37,2013-06-02 14:07:00,
2013-06-02 09:08:00,39.0,25.9,28.79,North,0,13.8,13.8,59,0.00,CLR,,0.00,WeatherDisplay:10.37,2013-06-02 14:08:00,
2013-06-02 09:11:00,39.0,26.3,28.79,NW,315,15.0,15.0,60,0.00,CLR,,0.00,WeatherDisplay:10.37,2013-06-02 14:11:00,
2013-06-02 09:12:00,39.2,26.5,28.79,North,0,8.1,8.1,60,0.00,CLR,,0.00,WeatherDisplay:10.37,2013-06-02 14:12:00,
2013-06-02 09:13:00,39.4,26.6,28.79,NNW,338,8.1,8.1,60,0.00,CLR,,0.00,WeatherDisplay:10.37,2013-06-02 14:13:00,
2013-06-02 09:14:00,39.6,26.8,28.79,North,0,7.4,7.4,60,0.00,CLR,,0.00,WeatherDisplay:10.37,2013-06-02 14:14:00,
2013-06-02 09:16:00,39.7,25.7,28.79,WNW,292,10.4,10.4,57,0.00,CLR,,0.00,WeatherDisplay:10.37,2013-06-02 14:16:00,
2013-06-02 09:17:00,39.9,26.3,28.79,NW,315,9.2,9.2,58,0.00,CLR,,0.00,WeatherDisplay:10.37,2013-06-02 14:17:00,
2013-06-02 09:18:00,39.9,26.3,28.79,NNW,338,9.7,9.7,58,0.00,CLR,,0.00,WeatherDisplay:10.37,2013-06-02 14:18:00,
2013-06-02 09:19:00,39.9,25.9,28.79,North,0,9.2,9.2,57,0.00,CLR,,0.00,WeatherDisplay:10.37,2013-06-02 14:19:00,
2013-06-02 09:20:00,39.9,25.5,28.79,NNW,338,9.2,9.2,56,0.00,CLR,,0.00,WeatherDisplay:10.37,2013-06-02 14:20:00,
2013-06-02 09:22:00,43.2,29.4,28.79,NNW,338,8.5,8.5,58,0.00,CLR,,0.00,WeatherDisplay:10.37,2013-06-02 14:22:00,
2013-06-02 09:23:00,43.2,29.4,28.79,ENE,68,6.9,6.9,58,0.00,CLR,,0.00,WeatherDisplay:10.37,2013-06-02 14:23:00,
2013-06-02 09:24:00,43.3,28.7,28.79,NNE,22,8.1,8.1,56,0.00,CLR,,0.00,WeatherDisplay:10.37,2013-06-02 14:24:00,
2013-06-02 09:25:00,43.2,28.1,28.79,WNW,292,7.8,7.8,55,0.00,CLR,,0.00,WeatherDisplay:10.37,2013-06-02 14:25:00,
2013-06-02 09:28:00,42.4,26.5,28.79,North,0,6.9,6.9,53,0.00,CLR,,0.00,WeatherDisplay:10.37,2013-06-02 14:28:00,
2013-06-02 09:29:00,42.4,27.0,28.79,NNE,22,6.9,6.9,54,0.00,CLR,,0.00,WeatherDisplay:10.37,2013-06-02 14:29:00,
2013-06-02 09:30:00,42.3,26.3,28.79,North,0,13.8,13.8,53,0.00,CLR,,0.00,WeatherDisplay:10.37,2013-06-02 14:30:00,
2013-06-02 09:33:00,40.8,25.4,28.79,North,0,12.7,12.7,54,0.00,CLR,,0.00,WeatherDisplay:10.37,2013-06-02 14:33:00,
2013-06-02 09:34:00,40.8,25.4,28.79,NNW,338,8.1,8.1,54,0.00,CLR,,0.00,WeatherDisplay:10.37,2013-06-02 14:34:00,
2013-06-02 09:35:00,41.0,26.1,28.79,NNW,338,10.4,10.4,55,0.00,CLR,,0.00,WeatherDisplay:10.37,2013-06-02 14:35:00,
2013-06-02 09:38:00,41.5,26.6,28.79,North,0,8.1,8.1,55,0.00,CLR,,0.00,WeatherDisplay:10.37,2013-06-02 14:38:00,
2013-06-02 09:39:00,42.4,27.4,28.79,NW,315,4.6,4.6,55,0.00,CLR,,0.00,WeatherDisplay:10.37,2013-06-02 14:39:00,
2013-06-02 09:40:00,42.4,27.4,28.79,WNW,292,5.8,5.8,55,0.00,CLR,,0.00,WeatherDisplay:10.37,2013-06-02 14:40:00,
2013-06-02 09:43:00,43.0,27.9,28.79,NNW,338,9.2,9.2,55,0.00,CLR,,0.00,WeatherDisplay:10.37,2013-06-02 14:43:00,
2013-06-02 09:44:00,43.3,27.8,28.79,North,0,5.8,5.8,54,0.00,CLR,,0.00,WeatherDisplay:10.37,2013-06-02 14:44:00,
2013-06-02 09:45:00,43.1,28.0,28.79,NNW,335,5.0,10.0,55,0.00,CLR,,0.00,WeatherDisplay:10.37,2013-06-02 14:45:00,
2013-06-02 09:49:00,42.8,26.4,28.79,North,0,10.4,10.4,52,0.00,CLR,,0.00,WeatherDisplay:10.37,2013-06-02 14:49:00,
2013-06-02 09:50:00,42.8,26.4,28.79,North,352,7.0,12.0,52,0.00,CLR,,0.00,WeatherDisplay:10.37,2013-06-02 14:50:00,
2013-06-02 09:54:00,43.2,27.2,28.79,NW,315,8.1,8.1,53,0.00,CLR,,0.00,WeatherDisplay:10.37,2013-06-02 14:54:00,
2013-06-02 09:55:00,43.3,26.9,28.79,West,270,5.8,5.8,52,0.00,CLR,,0.00,WeatherDisplay:10.37,2013-06-02 14:55:00,
2013-06-02 09:59:00,43.0,26.1,28.79,North,0,9.2,9.2,51,0.00,CLR,,0.00,WeatherDisplay:10.37,2013-06-02 14:59:00,
2013-06-02 10:00:00,43.3,26.3,28.79,NNW,335,7.0,10.0,51,0.00,CLR,,0.00,WeatherDisplay:10.37,2013-06-02 15:00:00,
2013-06-02 10:01:00,44.1,27.1,28.79,NNW,338,8.1,8.1,51,0.00,CLR,,0.00,WeatherDisplay:10.37,2013-06-02 15:01:00,
2013-06-02 10:02:00,44.1,26.6,28.79,NW,315,10.4,10.4,50,0.00,CLR,,0.00,WeatherDisplay:10.37,2013-06-02 15:02:00,
2013-06-02 10:04:00,46.9,30.2,28.79,NW,315,6.9,6.9,52,0.00,CLR,,0.00,WeatherDisplay:10.37,2013-06-02 15:04:00,
2013-06-02 10:05:00,46.9,28.3,28.79,NNW,338,8.1,8.1,48,0.00,CLR,,0.00,WeatherDisplay:10.37,2013-06-02 15:05:00,
2013-06-02 10:06:00,47.1,28.4,28.79,NNE,22,5.8,5.8,48,0.00,CLR,,0.00,WeatherDisplay:10.37,2013-06-02 15:06:00,
2013-06-02 10:07:00,47.1,28.9,28.79,NE,45,5.8,5.8,49,0.00,CLR,,0.00,WeatherDisplay:10.37,2013-06-02 15:07:00,
2013-06-02 10:09:00,46.0,26.9,28.79,West,270,15.0,15.0,47,0.00,CLR,,0.00,WeatherDisplay:10.37,2013-06-02 15:09:00,
2013-06-02 10:10:00,45.7,26.6,28.79,NNW,333,7.0,15.0,47,0.00,CLR,,0.00,WeatherDisplay:10.37,2013-06-02 15:10:00,
2013-06-02 10:11:00,45.0,26.4,28.79,NNW,338,9.2,9.2,48,0.00,CLR,,0.00,WeatherDisplay:10.37,2013-06-02 15:11:00,
2013-06-02 10:12:00,44.2,25.8,28.79,North,0,9.2,9.2,48,0.00,CLR,,0.00,WeatherDisplay:10.37,2013-06-02 15:12:00,
2013-06-02 10:14:00,43.2,24.8,28.79,NW,315,8.1,8.1,48,0.00,CLR,,0.00,WeatherDisplay:10.37,2013-06-02 15:14:00,
2013-06-02 10:15:00,43.0,25.1,28.79,NNW,338,8.1,8.1,49,0.00,CLR,,0.00,WeatherDisplay:10.37,2013-06-02 15:15:00,
2013-06-02 10:16:00,43.0,25.1,28.79,NNW,338,8.1,8.1,49,0.00,CLR,,0.00,WeatherDisplay:10.37,2013-06-02 15:16:00,
2013-06-02 10:17:00,43.0,25.1,28.79,NNW,338,8.1,8.1,49,0.00,CLR,,0.00,WeatherDisplay:10.37,2013-06-02 15:17:00,
2013-06-02 10:20:00,44.1,26.6,28.79,WNW,292,5.8,5.8,50,0.00,CLR,,0.00,WeatherDisplay:10.37,2013-06-02 15:20:00,
2013-06-02 10:21:00,44.1,26.6,28.79,North,0,5.8,5.8,50,0.00,CLR,,0.00,WeatherDisplay:10.37,2013-06-02 15:21:00,
2013-06-02 10:22:00,44.1,26.6,28.79,NNE,22,8.7,8.7,50,0.00,CLR,,0.00,WeatherDisplay:10.37,2013-06-02 15:22:00,
2013-06-02 10:26:00,44.2,26.3,28.79,East,90,5.8,5.8,49,0.00,CLR,,0.00,WeatherDisplay:10.37,2013-06-02 15:26:00,
2013-06-02 10:27:00,44.4,26.4,28.79,NNW,338,8.7,8.7,49,0.00,CLR,,0.00,WeatherDisplay:10.37,2013-06-02 15:27:00,
2013-06-02 10:31:00,45.1,26.6,28.79,North,0,8.1,8.1,48,0.00,CLR,,0.00,WeatherDisplay:10.37,2013-06-02 15:31:00,
2013-06-02 10:32:00,45.9,26.7,28.79,North,0,6.0,6.0,47,0.00,CLR,,0.00,WeatherDisplay:10.37,2013-06-02 15:32:00,
2013-06-02 10:36:00,45.7,26.6,28.79,NNW,338,8.1,8.1,47,0.00,CLR,,0.00,WeatherDisplay:10.37,2013-06-02 15:36:00,
2013-06-02 10:37:00,45.7,26.6,28.79,NW,315,11.5,11.5,47,0.00,CLR,,0.00,WeatherDisplay:10.37,2013-06-02 15:37:00,
2013-06-02 10:42:00,44.8,26.3,28.79,North,0,8.1,8.1,48,0.00,CLR,,0.00,WeatherDisplay:10.37,2013-06-02 15:42:00,
2013-06-02 10:43:00,45.0,26.9,28.79,NNW,338,8.1,8.1,49,0.00,CLR,,0.00,WeatherDisplay:10.37,2013-06-02 15:43:00,
2013-06-02 10:47:00,46.0,26.9,28.79,NW,315,5.8,5.8,47,0.00,CLR,,0.00,WeatherDisplay:10.37,2013-06-02 15:47:00,
2013-06-02 10:48:00,45.9,26.7,28.79,North,0,5.8,5.8,47,0.00,CLR,,0.00,WeatherDisplay:10.37,2013-06-02 15:48:00,
2013-06-02 10:49:00,46.2,27.6,28.79,North,0,6.9,6.9,48,0.00,CLR,,0.00,WeatherDisplay:10.37,2013-06-02 15:49:00,
2013-06-02 10:52:00,46.8,28.1,28.79,NE,45,4.3,4.3,48,0.00,CLR,,0.00,WeatherDisplay:10.37,2013-06-02 15:52:00,
2013-06-02 10:53:00,46.8,28.1,28.79,North,0,5.8,5.8,48,0.00,CLR,,0.00,WeatherDisplay:10.37,2013-06-02 15:53:00,
2013-06-02 10:54:00,46.6,27.4,28.79,NNW,338,6.0,6.0,47,0.00,CLR,,0.00,WeatherDisplay:10.37,2013-06-02 15:54:00,
2013-06-02 10:57:00,46.4,26.2,28.79,NNE,22,8.1,8.1,45,0.00,CLR,,0.00,WeatherDisplay:10.37,2013-06-02 15:57:00,
2013-06-02 10:58:00,46.8,27.0,28.79,NNE,22,9.2,9.2,46,0.00,CLR,,0.00,WeatherDisplay:10.37,2013-06-02 15:58:00,
2013-06-02 10:59:00,47.1,27.4,28.79,NW,315,11.5,11.5,46,0.00,CLR,,0.00,WeatherDisplay:10.37,2013-06-02 15:59:00,
2013-06-02 11:03:00,46.8,27.0,28.79,ENE,68,8.1,8.1,46,0.00,CLR,,0.00,WeatherDisplay:10.37,2013-06-02 16:03:00,
2013-06-02 11:04:00,47.5,28.2,28.79,NNW,338,5.8,5.8,47,0.00,CLR,,0.00,WeatherDisplay:10.37,2013-06-02 16:04:00,
2013-06-02 11:05:00,47.5,28.2,28.79,NNW,338,5.8,5.8,47,0.00,CLR,,0.00,WeatherDisplay:10.37,2013-06-02 16:05:00,
2013-06-02 11:08:00,46.4,26.7,28.79,NW,315,10.4,10.4,46,0.00,CLR,,0.00,WeatherDisplay:10.37,2013-06-02 16:08:00,
2013-06-02 11:09:00,46.4,27.2,28.79,North,0,10.4,10.4,47,0.00,CLR,,0.00,WeatherDisplay:10.37,2013-06-02 16:09:00,
2013-06-02 11:10:00,46.4,27.2,28.79,East,90,10.4,10.4,47,0.00,CLR,,0.00,WeatherDisplay:10.37,2013-06-02 16:10:00,
2013-06-02 11:13:00,46.2,26.6,28.79,North,0,10.4,10.4,46,0.00,CLR,,0.00,WeatherDisplay:10.37,2013-06-02 16:13:00,
2013-06-02 11:15:00,46.0,26.4,28.79,WNW,292,10.4,10.4,46,0.00,CLR,,0.00,WeatherDisplay:10.37,2013-06-02 16:15:00,
2013-06-02 11:18:00,46.0,26.9,28.79,NNW,338,10.0,10.0,47,0.00,CLR,,0.00,WeatherDisplay:10.37,2013-06-02 16:18:00,
2013-06-02 11:20:00,45.9,26.2,28.79,NW,315,10.4,10.4,46,0.00,CLR,,0.00,WeatherDisplay:10.37,2013-06-02 16:20:00,
2013-06-02 11:21:00,46.2,26.6,28.79,WNW,292,9.2,9.2,46,0.00,CLR,,0.00,WeatherDisplay:10.37,2013-06-02 16:21:00,
2013-06-02 11:23:00,46.4,27.2,28.79,NNW,338,10.4,10.4,47,0.00,CLR,,0.00,WeatherDisplay:10.37,2013-06-02 16:23:00,
2013-06-02 11:25:00,46.8,27.6,28.82,NW,315,5.8,5.8,47,0.00,CLR,,0.00,WeatherDisplay:10.37,2013-06-02 16:25:00,
2013-06-02 11:26:00,46.9,27.2,28.82,NW,315,5.8,5.8,46,0.00,CLR,,0.00,WeatherDisplay:10.37,2013-06-02 16:26:00,
2013-06-02 11:27:00,47.8,28.6,28.82,WNW,292,3.5,4.3,47,0.00,CLR,,0.00,WeatherDisplay:10.37,2013-06-02 16:27:00,
2013-06-02 11:29:00,47.5,27.2,28.82,NNW,338,10.4,10.4,45,0.00,CLR,,0.00,WeatherDisplay:10.37,2013-06-02 16:29:00,
2013-06-02 11:30:00,47.8,27.5,28.82,NW,315,6.9,6.9,45,0.00,CLR,,0.00,WeatherDisplay:10.37,2013-06-02 16:30:00,
2013-06-02 11:31:00,47.8,27.5,28.82,NE,45,5.8,5.8,45,0.00,CLR,,0.00,WeatherDisplay:10.37,2013-06-02 16:31:00,
2013-06-02 11:32:00,48.0,28.2,28.82,NW,315,6.9,6.9,46,0.00,CLR,,0.00,WeatherDisplay:10.37,2013-06-02 16:32:00,
2013-06-02 11:34:00,48.0,28.2,28.82,North,0,9.2,9.2,46,0.00,CLR,,0.00,WeatherDisplay:10.37,2013-06-02 16:34:00,
2013-06-02 11:36:00,47.8,28.0,28.82,North,0,8.1,8.1,46,0.00,CLR,,0.00,WeatherDisplay:10.37,2013-06-02 16:36:00,
2013-06-02 11:37:00,47.8,28.0,28.82,NW,315,5.8,5.8,46,0.00,CLR,,0.00,WeatherDisplay:10.37,2013-06-02 16:37:00,
2013-06-02 11:39:00,47.7,27.3,28.82,NNW,338,8.1,8.1,45,0.00,CLR,,0.00,WeatherDisplay:10.37,2013-06-02 16:39:00,
2013-06-02 11:41:00,47.1,26.3,28.82,North,0,11.5,11.5,44,0.00,CLR,,0.00,WeatherDisplay:10.37,2013-06-02 16:41:00,
2013-06-02 11:42:00,47.3,27.0,28.82,NW,315,11.5,11.5,45,0.00,CLR,,0.00,WeatherDisplay:10.37,2013-06-02 16:42:00,
2013-06-02 11:43:00,47.3,27.0,28.82,North,0,9.2,9.2,45,0.00,CLR,,0.00,WeatherDisplay:10.37,2013-06-02 16:43:00,
2013-06-02 11:44:00,48.2,27.8,28.82,WNW,292,8.1,8.1,45,0.00,CLR,,0.00,WeatherDisplay:10.37,2013-06-02 16:44:00,
2013-06-02 11:47:00,48.2,27.8,28.82,NW,315,6.9,6.9,45,0.00,CLR,,0.00,WeatherDisplay:10.37,2013-06-02 16:47:00,
2013-06-02 11:48:00,48.2,27.8,28.82,NNW,338,6.9,6.9,45,0.00,CLR,,0.00,WeatherDisplay:10.37,2013-06-02 16:48:00,
2013-06-02 11:50:00,48.7,28.3,28.82,North,0,5.9,5.9,45,0.00,CLR,,0.00,WeatherDisplay:10.37,2013-06-02 16:50:00,
2013-06-02 11:53:00,48.4,28.5,28.82,West,270,6.9,6.9,46,0.00,CLR,,0.00,WeatherDisplay:10.37,2013-06-02 16:53:00,
2013-06-02 11:55:00,47.5,27.2,28.82,North,0,11.5,11.5,45,0.00,CLR,,0.00,WeatherDisplay:10.37,2013-06-02 16:55:00,
2013-06-02 11:58:00,47.3,27.5,28.82,NW,315,8.1,8.1,46,0.00,CLR,,0.00,WeatherDisplay:10.37,2013-06-02 16:58:00,
2013-06-02 11:59:00,47.8,28.0,28.82,North,0,8.1,8.1,46,0.00,CLR,,0.00,WeatherDisplay:10.37,2013-06-02 16:59:00,
2013-06-02 12:01:00,48.0,27.7,28.82,NNW,338,9.2,9.2,45,0.00,CLR,,0.00,WeatherDisplay:10.37,2013-06-02 17:01:00,
2013-06-02 12:03:00,49.3,29.4,28.82,NNE,22,5.8,5.8,46,0.00,CLR,,0.00,WeatherDisplay:10.37,2013-06-02 17:03:00,
2013-06-02 12:05:00,50.4,29.2,28.82,NE,45,5.8,5.8,44,0.00,CLR,,0.00,WeatherDisplay:10.37,2013-06-02 17:05:00,
2013-06-02 12:07:00,51.4,30.2,28.82,SSE,158,9.2,9.2,44,0.00,CLR,,0.00,WeatherDisplay:10.37,2013-06-02 17:07:00,
2013-06-02 12:09:00,51.6,30.4,28.82,North,0,4.9,4.9,44,0.00,CLR,,0.00,WeatherDisplay:10.37,2013-06-02 17:09:00,
2013-06-02 12:10:00,51.8,30.6,28.82,North,0,4.6,4.6,44,0.00,CLR,,0.00,WeatherDisplay:10.37,2013-06-02 17:10:00,
2013-06-02 12:11:00,51.6,30.4,28.82,West,270,5.8,5.8,44,0.00,CLR,,0.00,WeatherDisplay:10.37,2013-06-02 17:11:00,
2013-06-02 12:13:00,50.7,27.8,28.82,NE,45,6.9,6.9,41,0.00,CLR,,0.00,WeatherDisplay:10.37,2013-06-02 17:13:00,
2013-06-02 12:14:00,50.7,29.0,28.82,WNW,292,3.6,3.6,43,0.00,CLR,,0.00,WeatherDisplay:10.37,2013-06-02 17:14:00,
2013-06-02 12:15:00,50.9,30.3,28.82,NE,45,3.5,4.7,45,0.00,CLR,,0.00,WeatherDisplay:10.37,2013-06-02 17:15:00,
2013-06-02 12:16:00,50.9,30.3,28.82,NNW,338,5.9,5.9,45,0.00,CLR,,0.00,WeatherDisplay:10.37,2013-06-02 17:16:00,
2013-06-02 12:18:00,50.2,28.5,28.82,NNW,338,8.1,8.1,43,0.00,CLR,,0.00,WeatherDisplay:10.37,2013-06-02 17:18:00,
2013-06-02 12:20:00,49.3,27.2,28.82,NNW,336,8.0,10.0,42,0.00,CLR,,0.00,WeatherDisplay:10.37,2013-06-02 17:20:00,
2013-06-02 12:21:00,49.1,27.5,28.82,NW,315,10.4,10.4,43,0.00,CLR,,0.00,WeatherDisplay:10.37,2013-06-02 17:21:00,
2013-06-02 12:23:00,48.9,27.4,28.82,WNW,292,9.2,9.2,43,0.00,CLR,,0.00,WeatherDisplay:10.37,2013-06-02 17:23:00,
2013-06-02 12:25:00,50.4,29.2,28.82,NW,315,5.8,5.8,44,0.00,CLR,,0.00,WeatherDisplay:10.37,2013-06-02 17:25:00,
2013-06-02 12:26:00,50.4,29.2,28.82,North,0,7.1,7.1,44,0.00,CLR,,0.00,WeatherDisplay:10.37,2013-06-02 17:26:00,
2013-06-02 12:28:00,50.9,29.2,28.82,NW,315,9.2,9.2,43,0.00,CLR,,0.00,WeatherDisplay:10.37,2013-06-02 17:28:00,
2013-06-02 12:31:00,50.4,27.5,28.82,West,270,9.2,9.2,41,0.00,CLR,,0.00,WeatherDisplay:10.37,2013-06-02 17:31:00,
2013-06-02 12:32:00,50.4,28.1,28.82,North,0,9.2,9.2,42,0.00,CLR,,0.00,WeatherDisplay:10.37,2013-06-02 17:32:00,
2013-06-02 12:35:00,50.7,29.0,28.82,NE,45,8.1,8.1,43,0.00,CLR,,0.00,WeatherDisplay:10.37,2013-06-02 17:35:00,
2013-06-02 12:37:00,51.4,30.2,28.82,North,0,9.2,9.2,44,0.00,CLR,,0.00,WeatherDisplay:10.37,2013-06-02 17:37:00,
2013-06-02 12:40:00,50.2,27.4,28.82,NE,45,12.7,12.7,41,0.00,CLR,,0.00,WeatherDisplay:10.37,2013-06-02 17:40:00,
2013-06-02 12:42:00,49.8,27.0,28.82,WNW,292,11.5,11.5,41,0.00,CLR,,0.00,WeatherDisplay:10.37,2013-06-02 17:42:00,
2013-06-02 12:43:00,49.1,27.0,28.82,WNW,292,11.5,11.5,42,0.00,CLR,,0.00,WeatherDisplay:10.37,2013-06-02 17:43:00,
2013-06-02 12:45:00,48.9,26.8,28.82,North,0,9.2,9.2,42,0.00,CLR,,0.00,WeatherDisplay:10.37,2013-06-02 17:45:00,
2013-06-02 12:47:00,48.9,26.2,28.82,NW,315,9.2,9.2,41,0.00,CLR,,0.00,WeatherDisplay:10.37,2013-06-02 17:47:00,
2013-06-02 12:48:00,48.9,26.8,28.82,NW,315,9.2,9.2,42,0.00,CLR,,0.00,WeatherDisplay:10.37,2013-06-02 17:48:00,
2013-06-02 12:49:00,48.7,27.2,28.82,NNW,338,12.7,12.7,43,0.00,CLR,,0.00,WeatherDisplay:10.37,2013-06-02 17:49:00,
2013-06-02 12:51:00,48.9,27.4,28.82,NNW,338,10.4,10.4,43,0.00,CLR,,0.00,WeatherDisplay:10.37,2013-06-02 17:51:00,
2013-06-02 12:52:00,49.3,28.3,28.82,North,0,10.4,10.4,44,0.00,CLR,,0.00,WeatherDisplay:10.37,2013-06-02 17:52:00,
2013-06-02 12:53:00,49.8,28.8,28.82,NW,315,8.1,8.1,44,0.00,CLR,,0.00,WeatherDisplay:10.37,2013-06-02 17:53:00,
2013-06-02 12:54:00,48.9,27.4,28.82,NNW,338,10.4,10.4,43,0.00,CLR,,0.00,WeatherDisplay:10.37,2013-06-02 17:54:00,
2013-06-02 12:56:00,48.7,27.8,28.82,WNW,292,8.1,8.1,44,0.00,CLR,,0.00,WeatherDisplay:10.37,2013-06-02 17:56:00,
2013-06-02 12:57:00,48.4,27.4,28.82,NW,315,11.5,11.5,44,0.00,CLR,,0.00,WeatherDisplay:10.37,2013-06-02 17:57:00,
2013-06-02 12:59:00,49.3,28.8,28.82,WSW,248,13.0,13.0,45,0.00,CLR,,0.00,WeatherDisplay:10.37,2013-06-02 17:59:00,
2013-06-02 13:01:00,49.5,28.4,28.82,NW,315,10.0,10.0,44,0.00,CLR,,0.00,WeatherDisplay:10.37,2013-06-02 18:01:00,
2013-06-02 13:02:00,49.5,28.4,28.82,NNW,338,10.4,10.4,44,0.00,CLR,,0.00,WeatherDisplay:10.37,2013-06-02 18:02:00,
2013-06-02 13:04:00,49.8,29.3,28.82,NW,315,7.6,7.6,45,0.00,CLR,,0.00,WeatherDisplay:10.37,2013-06-02 18:04:00,
2013-06-02 13:06:00,50.2,29.6,28.82,East,90,10.4,10.4,45,0.00,CLR,,0.00,WeatherDisplay:10.37,2013-06-02 18:06:00,
2013-06-02 13:07:00,50.2,29.6,28.82,North,0,8.1,8.1,45,0.00,CLR,,0.00,WeatherDisplay:10.37,2013-06-02 18:07:00,
2013-06-02 13:10:00,50.2,27.9,28.81,NNW,342,7.0,10.0,42,0.00,CLR,,0.00,WeatherDisplay:10.37,2013-06-02 18:10:00,
2013-06-02 13:11:00,50.2,27.9,28.79,NW,315,5.8,5.8,42,0.00,CLR,,0.00,WeatherDisplay:10.37,2013-06-02 18:11:00,
2013-06-02 13:12:00,51.6,29.8,28.79,NNE,22,6.0,6.0,43,0.00,CLR,,0.00,WeatherDisplay:10.37,2013-06-02 18:12:00,
2013-06-02 13:15:00,51.6,29.2,28.79,NNW,334,6.0,11.0,42,0.00,CLR,,0.00,WeatherDisplay:10.37,2013-06-02 18:15:00,
2013-06-02 13:17:00,50.4,28.7,28.79,NNE,22,11.8,11.8,43,0.00,CLR,,0.00,WeatherDisplay:10.37,2013-06-02 18:17:00,
2013-06-02 13:20:00,50.0,28.4,28.79,NNW,338,5.8,6.9,43,0.00,CLR,,0.00,WeatherDisplay:10.37,2013-06-02 18:20:00,
2013-06-02 13:22:00,51.4,29.1,28.79,ESE,112,4.6,4.6,42,0.00,CLR,,0.00,WeatherDisplay:10.37,2013-06-02 18:22:00,
2013-06-02 13:25:00,52.9,29.2,28.82,North,0,8.1,8.1,40,0.00,CLR,,0.00,WeatherDisplay:10.37,2013-06-02 18:25:00,
2013-06-02 13:27:00,52.0,28.4,28.82,NNE,22,9.2,9.2,40,0.00,CLR,,0.00,WeatherDisplay:10.37,2013-06-02 18:27:00,
2013-06-02 13:28:00,52.0,28.4,28.82,North,0,5.8,5.8,40,0.00,CLR,,0.00,WeatherDisplay:10.37,2013-06-02 18:28:00,
2013-06-02 13:31:00,50.9,28.6,28.82,NNW,338,8.1,8.1,42,0.00,CLR,,0.00,WeatherDisplay:10.37,2013-06-02 18:31:00,
2013-06-02 13:32:00,50.5,28.3,28.82,NNW,338,8.1,8.1,42,0.00,CLR,,0.00,WeatherDisplay:10.37,2013-06-02 18:32:00,
2013-06-02 13:33:00,50.5,27.7,28.82,WNW,292,9.2,9.2,41,0.00,CLR,,0.00,WeatherDisplay:10.37,2013-06-02 18:33:00,
2013-06-02 13:36:00,50.0,27.8,28.82,NW,315,12.7,12.7,42,0.00,CLR,,0.00,WeatherDisplay:10.37,2013-06-02 18:36:00,
2013-06-02 13:37:00,50.5,27.7,28.82,NW,315,9.2,9.2,41,0.00,CLR,,0.00,WeatherDisplay:10.37,2013-06-02 18:37:00,
2013-06-02 13:38:00,50.5,27.7,28.82,WNW,292,9.2,9.2,41,0.00,CLR,,0.00,WeatherDisplay:10.37,2013-06-02 18:38:00,
2013-06-02 13:41:00,50.9,28.6,28.82,NW,315,7.6,7.6,42,0.00,CLR,,0.00,WeatherDisplay:10.37,2013-06-02 18:41:00,
2013-06-02 13:42:00,51.3,28.3,28.82,North,0,8.1,8.1,41,0.00,CLR,,0.00,WeatherDisplay:10.37,2013-06-02 18:42:00,
2013-06-02 13:43:00,51.3,28.3,28.82,North,0,8.1,8.1,41,0.00,CLR,,0.00,WeatherDisplay:10.37,2013-06-02 18:43:00,
2013-06-02 13:44:00,51.6,28.1,28.82,NW,315,8.1,8.1,40,0.00,CLR,,0.00,WeatherDisplay:10.37,2013-06-02 18:44:00,
2013-06-02 13:46:00,53.2,30.7,28.82,NNE,22,6.9,6.9,42,0.00,CLR,,0.00,WeatherDisplay:10.37,2013-06-02 18:46:00,
2013-06-02 13:48:00,53.2,30.7,28.82,North,0,5.4,5.4,42,0.00,CLR,,0.00,WeatherDisplay:10.37,2013-06-02 18:48:00,
2013-06-02 13:49:00,54.1,29.7,28.82,NNW,338,8.1,8.1,39,0.00,CLR,,0.00,WeatherDisplay:10.37,2013-06-02 18:49:00,
2013-06-02 13:51:00,54.9,30.3,28.82,NNE,22,8.1,8.1,39,0.00,CLR,,0.00,WeatherDisplay:10.37,2013-06-02 18:51:00,
2013-06-02 13:53:00,54.9,31.0,28.82,NE,45,8.1,8.1,40,0.00,CLR,,0.00,WeatherDisplay:10.37,2013-06-02 18:53:00,
2013-06-02 13:54:00,53.6,28.6,28.82,NW,315,6.9,6.9,38,0.00,CLR,,0.00,WeatherDisplay:10.37,2013-06-02 18:54:00,
2013-06-02 13:55:00,53.6,29.2,28.82,NW,315,9.2,9.2,39,0.00,CLR,,0.00,WeatherDisplay:10.37,2013-06-02 18:55:00,
2013-06-02 13:57:00,52.0,26.5,28.82,North,0,10.4,10.4,37,0.00,CLR,,0.00,WeatherDisplay:10.37,2013-06-02 18:57:00,
2013-06-02 13:58:00,52.7,29.0,28.82,NW,315,9.2,9.2,40,0.00,CLR,,0.00,WeatherDisplay:10.37,2013-06-02 18:58:00,
2013-06-02 13:59:00,52.9,27.9,28.82,NNW,338,6.9,6.9,38,0.00,CLR,,0.00,WeatherDisplay:10.37,2013-06-02 18:59:00,
2013-06-02 14:00:00,52.9,27.9,28.82,NNW,338,10.4,10.4,38,0.00,CLR,,0.00,WeatherDisplay:10.37,2013-06-02 19:00:00,
2013-06-02 14:02:00,53.6,28.6,28.82,North,0,9.2,9.2,38,0.00,CLR,,0.00,WeatherDisplay:10.37,2013-06-02 19:02:00,
2013-06-02 14:03:00,53.6,28.6,28.82,NW,315,5.9,5.9,38,0.00,CLR,,0.00,WeatherDisplay:10.37,2013-06-02 19:03:00,
2013-06-02 14:04:00,53.8,28.7,28.82,NW,315,6.9,6.9,38,0.00,CLR,,0.00,WeatherDisplay:10.37,2013-06-02 19:04:00,
2013-06-02 14:05:00,54.0,28.9,28.82,NNW,338,6.4,6.4,38,0.00,CLR,,0.00,WeatherDisplay:10.37,2013-06-02 19:05:00,
2013-06-02 14:07:00,54.0,28.3,28.82,North,0,6.9,6.9,37,0.00,CLR,,0.00,WeatherDisplay:10.37,2013-06-02 19:07:00,
2013-06-02 14:09:00,55.4,32.1,28.82,NNE,22,8.1,8.1,41,0.00,CLR,,0.00,WeatherDisplay:10.37,2013-06-02 19:09:00,
2013-06-02 14:10:00,55.4,32.1,28.82,NNW,338,4.5,4.5,41,0.00,CLR,,0.00,WeatherDisplay:10.37,2013-06-02 19:10:00,
2013-06-02 14:11:00,55.6,31.0,28.82,NNE,22,4.0,4.0,39,0.00,CLR,,0.00,WeatherDisplay:10.37,2013-06-02 19:11:00,
2013-06-02 14:12:00,55.6,30.4,28.82,North,0,7.4,7.4,38,0.00,CLR,,0.00,WeatherDisplay:10.37,2013-06-02 19:12:00,
2013-06-02 14:13:00,55.6,30.4,28.82,North,0,6.9,6.9,38,0.00,CLR,,0.00,WeatherDisplay:10.37,2013-06-02 19:13:00,
2013-06-02 14:15:00,55.0,29.2,28.82,North,0,5.8,5.8,37,0.00,CLR,,0.00,WeatherDisplay:10.37,2013-06-02 19:15:00,
2013-06-02 14:16:00,54.1,28.4,28.82,North,0,9.2,9.2,37,0.00,CLR,,0.00,WeatherDisplay:10.37,2013-06-02 19:16:00,
2013-06-02 14:17:00,54.0,28.3,28.82,NNE,22,8.5,8.5,37,0.00,CLR,,0.00,WeatherDisplay:10.37,2013-06-02 19:17:00,
2013-06-02 14:18:00,53.4,28.4,28.82,NNW,338,10.4,10.4,38,0.00,CLR,,0.00,WeatherDisplay:10.37,2013-06-02 19:18:00,
2013-06-02 14:20:00,54.1,29.1,28.82,North,0,9.2,9.2,38,0.00,CLR,,0.00,WeatherDisplay:10.37,2013-06-02 19:20:00,
2013-06-02 14:21:00,54.1,29.1,28.82,NE,45,4.6,5.4,38,0.00,CLR,,0.00,WeatherDisplay:10.37,2013-06-02 19:21:00,
2013-06-02 14:23:00,53.6,27.3,28.82,NNE,22,5.8,5.8,36,0.00,CLR,,0.00,WeatherDisplay:10.37,2013-06-02 19:23:00,
2013-06-02 14:25:00,53.2,27.6,28.82,NW,315,8.1,8.1,37,0.00,CLR,,0.00,WeatherDisplay:10.37,2013-06-02 19:25:00,
2013-06-02 14:26:00,53.8,28.1,28.82,NNW,338,8.1,8.1,37,0.00,CLR,,0.00,WeatherDisplay:10.37,2013-06-02 19:26:00,
2013-06-02 14:27:00,53.8,28.1,28.82,North,0,8.1,8.1,37,0.00,CLR,,0.00,WeatherDisplay:10.37,2013-06-02 19:27:00,
2013-06-02 14:28:00,54.3,28.6,28.82,WNW,292,5.8,5.8,37,0.00,CLR,,0.00,WeatherDisplay:10.37,2013-06-02 19:28:00,
2013-06-02 14:31:00,54.5,28.7,28.82,NW,315,8.5,8.5,37,0.00,CLR,,0.00,WeatherDisplay:10.37,2013-06-02 19:31:00,
2013-06-02 14:32:00,54.0,28.3,28.82,NNE,22,8.1,8.1,37,0.00,CLR,,0.00,WeatherDisplay:10.37,2013-06-02 19:32:00,
2013-06-02 14:33:00,53.4,27.8,28.82,NNW,338,8.1,8.1,37,0.00,CLR,,0.00,WeatherDisplay:10.37,2013-06-02 19:33:00,
2013-06-02 14:34:00,53.4,27.8,28.82,NNE,22,9.8,9.8,37,0.00,CLR,,0.00,WeatherDisplay:10.37,2013-06-02 19:34:00,
2013-06-02 14:37:00,53.4,27.8,28.82,NNW,338,9.2,9.2,37,0.00,CLR,,0.00,WeatherDisplay:10.37,2013-06-02 19:37:00,
2013-06-02 14:39:00,54.0,27.6,28.82,NW,315,6.9,6.9,36,0.00,CLR,,0.00,WeatherDisplay:10.37,2013-06-02 19:39:00,
2013-06-02 14:42:00,55.0,28.5,28.79,WSW,248,9.2,9.2,36,0.00,CLR,,0.00,WeatherDisplay:10.37,2013-06-02 19:42:00,
2013-06-02 14:43:00,55.0,28.5,28.79,West,270,9.2,9.2,36,0.00,CLR,,0.00,WeatherDisplay:10.37,2013-06-02 19:43:00,
2013-06-02 14:44:00,54.9,27.7,28.79,NW,315,9.2,9.2,35,0.00,CLR,,0.00,WeatherDisplay:10.37,2013-06-02 19:44:00,
2013-06-02 14:47:00,54.0,27.6,28.79,North,0,9.2,9.2,36,0.00,CLR,,0.00,WeatherDisplay:10.37,2013-06-02 19:47:00,
2013-06-02 14:48:00,54.0,27.6,28.79,NW,315,5.8,5.8,36,0.00,CLR,,0.00,WeatherDisplay:10.37,2013-06-02 19:48:00,
2013-06-02 14:49:00,54.5,28.1,28.79,NNW,338,4.6,4.6,36,0.00,CLR,,0.00,WeatherDisplay:10.37,2013-06-02 19:49:00,
2013-06-02 14:50:00,54.7,28.2,28.79,WNW,292,6.9,6.9,36,0.00,CLR,,0.00,WeatherDisplay:10.37,2013-06-02 19:50:00,
2013-06-02 14:53:00,53.6,26.6,28.79,North,0,6.9,6.9,35,0.00,CLR,,0.00,WeatherDisplay:10.37,2013-06-02 19:53:00,
2013-06-02 14:54:00,53.1,26.8,28.79,North,0,12.7,12.7,36,0.00,CLR,,0.00,WeatherDisplay:10.37,2013-06-02 19:54:00,
2013-06-02 14:56:00,54.1,28.4,28.82,NNE,22,6.9,6.9,37,0.00,CLR,,0.00,WeatherDisplay:10.37,2013-06-02 19:56:00,
2013-06-02 14:58:00,54.5,28.7,28.82,North,0,6.9,6.9,37,0.00,CLR,,0.00,WeatherDisplay:10.37,2013-06-02 19:58:00,
2013-06-02 14:59:00,54.5,28.1,28.82,NNE,22,4.6,4.6,36,0.00,CLR,,0.00,WeatherDisplay:10.37,2013-06-02 19:59:00,
2013-06-02 15:01:00,55.4,29.5,28.82,NE,45,3.5,3.5,37,0.00,CLR,,0.00,WeatherDisplay:10.37,2013-06-02 20:01:00,
2013-06-02 15:03:00,56.3,30.3,28.82,NW,315,3.8,3.8,37,0.00,CLR,,0.00,WeatherDisplay:10.37,2013-06-02 20:03:00,
2013-06-02 15:04:00,56.3,30.3,28.82,NW,315,4.9,4.9,37,0.00,CLR,,0.00,WeatherDisplay:10.37,2013-06-02 20:04:00,
2013-06-02 15:05:00,56.4,29.8,28.82,North,353,3.0,5.0,36,0.00,CLR,,0.00,WeatherDisplay:10.37,2013-06-02 20:05:00,
2013-06-02 15:06:00,55.9,28.7,28.82,NW,315,8.1,8.1,35,0.00,CLR,,0.00,WeatherDisplay:10.37,2013-06-02 20:06:00,
2013-06-02 15:07:00,55.9,28.7,28.82,North,0,8.1,8.1,35,0.00,CLR,,0.00,WeatherDisplay:10.37,2013-06-02 20:07:00,
2013-06-02 15:08:00,55.0,29.2,28.82,North,0,5.9,5.9,37,0.00,CLR,,0.00,WeatherDisplay:10.37,2013-06-02 20:08:00,
2013-06-02 15:09:00,55.0,29.2,28.82,SE,135,5.8,5.8,37,0.00,CLR,,0.00,WeatherDisplay:10.37,2013-06-02 20:09:00,
2013-06-02 15:10:00,55.0,27.9,28.82,North,0,3.5,3.5,35,0.00,CLR,,0.00,WeatherDisplay:10.37,2013-06-02 20:10:00,
2013-06-02 15:12:00,55.4,28.2,28.82,WNW,292,5.9,5.9,35,0.00,CLR,,0.00,WeatherDisplay:10.37,2013-06-02 20:12:00,
2013-06-02 15:14:00,55.6,28.3,28.82,NW,315,4.7,4.7,35,0.00,CLR,,0.00,WeatherDisplay:10.37,2013-06-02 20:14:00,
2013-06-02 15:15:00,55.6,28.3,28.82,NNE,22,6.9,6.9,35,0.00,CLR,,0.00,WeatherDisplay:10.37,2013-06-02 20:15:00,
2013-06-02 15:17:00,54.9,27.7,28.82,NNW,338,5.8,5.8,35,0.00,CLR,,0.00,WeatherDisplay:10.37,2013-06-02 20:17:00,
2013-06-02 15:18:00,54.7,27.5,28.82,NNW,338,5.9,5.9,35,0.00,CLR,,0.00,WeatherDisplay:10.37,2013-06-02 20:18:00,
2013-06-02 15:20:00,53.8,26.7,28.82,NE,45,8.1,8.1,35,0.00,CLR,,0.00,WeatherDisplay:10.37,2013-06-02 20:20:00,
2013-06-02 15:22:00,54.1,27.1,28.82,NE,45,5.8,5.8,35,0.00,CLR,,0.00,WeatherDisplay:10.37,2013-06-02 20:22:00,
2013-06-02 15:23:00,54.1,27.1,28.82,WNW,292,5.8,5.8,35,0.00,CLR,,0.00,WeatherDisplay:10.37,2013-06-02 20:23:00,
2013-06-02 15:25:00,54.3,27.9,28.79,NNW,338,6.9,6.9,36,0.00,CLR,,0.00,WeatherDisplay:10.37,2013-06-02 20:25:00,
2013-06-02 15:26:00,54.3,27.9,28.79,North,0,5.8,5.8,36,0.00,CLR,,0.00,WeatherDisplay:10.37,2013-06-02 20:26:00,
2013-06-02 15:28:00,54.1,27.1,28.79,North,0,6.9,6.9,35,0.00,CLR,,0.00,WeatherDisplay:10.37,2013-06-02 20:28:00,
2013-06-02 15:31:00,54.5,27.4,28.79,North,0,7.8,7.8,35,0.00,CLR,,0.00,WeatherDisplay:10.37,2013-06-02 20:31:00,
2013-06-02 15:33:00,54.1,27.7,28.79,NE,45,8.1,8.1,36,0.00,CLR,,0.00,WeatherDisplay:10.37,2013-06-02 20:33:00,
2013-06-02 15:34:00,54.1,27.7,28.79,NW,315,8.1,8.1,36,0.00,CLR,,0.00,WeatherDisplay:10.37,2013-06-02 20:34:00,
2013-06-02 15:36:00,54.5,28.7,28.79,NNW,338,4.6,4.6,37,0.00,CLR,,0.00,WeatherDisplay:10.37,2013-06-02 20:36:00,
2013-06-02 15:38:00,54.0,27.6,28.79,NNW,338,7.4,7.4,36,0.00,CLR,,0.00,WeatherDisplay:10.37,2013-06-02 20:38:00,
2013-06-02 15:40:00,53.8,27.4,28.82,North,0,8.1,8.1,36,0.00,CLR,,0.00,WeatherDisplay:10.37,2013-06-02 20:40:00,
2013-06-02 15:41:00,53.4,27.1,28.82,NNW,338,8.1,8.1,36,0.00,CLR,,0.00,WeatherDisplay:10.37,2013-06-02 20:41:00,
2013-06-02 15:42:00,52.7,26.5,28.82,North,0,9.2,9.2,36,0.00,CLR,,0.00,WeatherDisplay:10.37,2013-06-02 20:42:00,
2013-06-02 15:44:00,52.7,26.5,28.82,NNE,22,6.9,6.9,36,0.00,CLR,,0.00,WeatherDisplay:10.37,2013-06-02 20:44:00,
2013-06-02 15:45:00,53.1,26.8,28.82,North,0,4.6,4.6,36,0.00,CLR,,0.00,WeatherDisplay:10.37,2013-06-02 20:45:00,
2013-06-02 15:46:00,53.2,26.9,28.82,North,0,4.6,4.6,36,0.00,CLR,,0.00,WeatherDisplay:10.37,2013-06-02 20:46:00,
2013-06-02 15:47:00,53.8,27.4,28.82,NW,315,3.5,3.5,36,0.00,CLR,,0.00,WeatherDisplay:10.37,2013-06-02 20:47:00,
2013-06-02 15:50:00,53.6,26.6,28.82,NW,315,9.2,9.2,35,0.00,CLR,,0.00,WeatherDisplay:10.37,2013-06-02 20:50:00,
2013-06-02 15:51:00,53.6,26.6,28.82,NW,315,9.2,9.2,35,0.00,CLR,,0.00,WeatherDisplay:10.37,2013-06-02 20:51:00,
2013-06-02 15:52:00,54.1,27.1,28.82,NE,45,3.5,3.5,35,0.00,CLR,,0.00,WeatherDisplay:10.37,2013-06-02 20:52:00,
2013-06-02 15:53:00,54.1,27.1,28.82,NNE,22,3.5,3.5,35,0.00,CLR,,0.00,WeatherDisplay:10.37,2013-06-02 20:53:00,
2013-06-02 15:55:00,54.3,27.2,28.79,North,0,5.9,5.9,35,0.00,CLR,,0.00,WeatherDisplay:10.37,2013-06-02 20:55:00,
2013-06-02 15:56:00,53.8,27.4,28.79,NW,315,8.1,8.1,36,0.00,CLR,,0.00,WeatherDisplay:10.37,2013-06-02 20:56:00,
2013-06-02 15:57:00,54.1,27.7,28.79,NE,45,8.1,8.1,36,0.00,CLR,,0.00,WeatherDisplay:10.37,2013-06-02 20:57:00,
2013-06-02 15:58:00,54.5,27.4,28.79,ENE,68,4.6,4.6,35,0.00,CLR,,0.00,WeatherDisplay:10.37,2013-06-02 20:58:00,
2013-06-02 16:00:00,54.7,27.5,28.79,NNE,22,3.5,3.5,35,0.00,CLR,,0.00,WeatherDisplay:10.37,2013-06-02 21:00:00,
2013-06-02 16:01:00,54.5,27.4,28.79,East,90,4.3,4.3,35,0.00,CLR,,0.00,WeatherDisplay:10.37,2013-06-02 21:01:00,
2013-06-02 16:02:00,54.3,27.2,28.79,WNW,292,4.6,4.6,35,0.00,CLR,,0.00,WeatherDisplay:10.37,2013-06-02 21:02:00,
2013-06-02 16:03:00,54.3,27.2,28.79,NW,315,4.6,4.6,35,0.00,CLR,,0.00,WeatherDisplay:10.37,2013-06-02 21:03:00,
2013-06-02 16:05:00,54.5,27.4,28.79,North,0,5.8,5.8,35,0.00,CLR,,0.00,WeatherDisplay:10.37,2013-06-02 21:05:00,
2013-06-02 16:07:00,54.5,27.4,28.79,NW,315,6.9,6.9,35,0.00,CLR,,0.00,WeatherDisplay:10.37,2013-06-02 21:07:00,
2013-06-02 16:09:00,54.9,27.7,28.79,West,270,6.9,6.9,35,0.00,CLR,,0.00,WeatherDisplay:10.37,2013-06-02 21:09:00,
2013-06-02 16:10:00,54.9,27.7,28.79,NW,315,6.9,6.9,35,0.00,CLR,,0.00,WeatherDisplay:10.37,2013-06-02 21:10:00,
2013-06-02 16:12:00,54.7,27.5,28.79,NNW,338,6.9,6.9,35,0.00,CLR,,0.00,WeatherDisplay:10.37,2013-06-02 21:12:00,
2013-06-02 16:13:00,54.5,27.4,28.79,NW,315,6.9,6.9,35,0.00,CLR,,0.00,WeatherDisplay:10.37,2013-06-02 21:13:00,
2013-06-02 16:15:00,54.7,28.2,28.79,NNW,338,8.1,8.1,36,0.00,CLR,,0.00,WeatherDisplay:10.37,2013-06-02 21:15:00,
2013-06-02 16:16:00,54.9,27.7,28.79,NW,315,8.1,8.1,35,0.00,CLR,,0.00,WeatherDisplay:10.37,2013-06-02 21:16:00,
2013-06-02 16:18:00,54.3,27.2,28.79,NW,315,6.9,6.9,35,0.00,CLR,,0.00,WeatherDisplay:10.37,2013-06-02 21:18:00,
2013-06-02 16:19:00,54.3,27.2,28.79,NW,315,5.8,5.8,35,0.00,CLR,,0.00,WeatherDisplay:10.37,2013-06-02 21:19:00,
2013-06-02 16:20:00,54.5,26.7,28.79,NE,45,5.8,5.8,34,0.00,CLR,,0.00,WeatherDisplay:10.37,2013-06-02 21:20:00,
2013-06-02 16:21:00,54.7,27.5,28.79,NE,45,4.6,4.6,35,0.00,CLR,,0.00,WeatherDisplay:10.37,2013-06-02 21:21:00,
2013-06-02 16:24:00,54.5,27.4,28.79,NW,315,3.8,3.8,35,0.00,CLR,,0.00,WeatherDisplay:10.37,2013-06-02 21:24:00,
2013-06-02 16:25:00,54.5,27.4,28.79,NW,315,7.4,7.4,35,0.00,CLR,,0.00,WeatherDisplay:10.37,2013-06-02 21:25:00,
2013-06-02 16:26:00,54.5,27.4,28.79,NW,315,7.4,7.4,35,0.00,CLR,,0.00,WeatherDisplay:10.37,2013-06-02 21:26:00,
2013-06-02 16:29:00,54.3,26.5,28.79,North,0,6.9,6.9,34,0.00,CLR,,0.00,WeatherDisplay:10.37,2013-06-02 21:29:00,
2013-06-02 16:30:00,54.9,27.7,28.79,ENE,68,2.0,2.0,35,0.00,CLR,,0.00,WeatherDisplay:10.37,2013-06-02 21:30:00,
2013-06-02 16:31:00,55.0,27.9,28.79,NW,315,3.5,3.5,35,0.00,CLR,,0.00,WeatherDisplay:10.37,2013-06-02 21:31:00,
2013-06-02 16:35:00,55.6,27.6,28.79,NNW,338,4.0,4.0,34,0.00,CLR,,0.00,WeatherDisplay:10.37,2013-06-02 21:35:00,
2013-06-02 16:36:00,55.6,27.6,28.79,NNE,22,5.8,5.8,34,0.00,CLR,,0.00,WeatherDisplay:10.37,2013-06-02 21:36:00,
2013-06-02 16:37:00,54.9,27.0,28.79,NNW,338,8.1,8.1,34,0.00,CLR,,0.00,WeatherDisplay:10.37,2013-06-02 21:37:00,
2013-06-02 16:40:00,54.5,26.7,28.79,NNE,22,6.9,6.9,34,0.00,CLR,,0.00,WeatherDisplay:10.37,2013-06-02 21:40:00,
2013-06-02 16:42:00,54.9,27.0,28.79,NW,315,5.8,5.8,34,0.00,CLR,,0.00,WeatherDisplay:10.37,2013-06-02 21:42:00,
2013-06-02 16:43:00,54.7,26.8,28.79,NNE,22,6.9,6.9,34,0.00,CLR,,0.00,WeatherDisplay:10.37,2013-06-02 21:43:00,
2013-06-02 16:45:00,55.0,27.9,28.79,NE,45,4.9,4.9,35,0.00,CLR,,0.00,WeatherDisplay:10.37,2013-06-02 21:45:00,
2013-06-02 16:47:00,55.2,28.0,28.79,NNW,338,3.5,3.5,35,0.00,CLR,,0.00,WeatherDisplay:10.37,2013-06-02 21:47:00,
2013-06-02 16:48:00,54.9,27.0,28.79,NNE,22,6.9,6.9,34,0.00,CLR,,0.00,WeatherDisplay:10.37,2013-06-02 21:48:00,
2013-06-02 16:50:00,55.2,27.3,28.79,NE,45,4.6,4.6,34,0.00,CLR,,0.00,WeatherDisplay:10.37,2013-06-02 21:50:00,
2013-06-02 16:52:00,54.7,26.8,28.79,NNE,22,5.8,5.8,34,0.00,CLR,,0.00,WeatherDisplay:10.37,2013-06-02 21:52:00,
2013-06-02 16:53:00,54.7,26.8,28.79,NNE,22,5.8,5.8,34,0.00,CLR,,0.00,WeatherDisplay:10.37,2013-06-02 21:53:00,
2013-06-02 16:54:00,54.7,26.8,28.79,North,0,5.8,5.8,34,0.00,CLR,,0.00,WeatherDisplay:10.37,2013-06-02 21:54:00,
2013-06-02 16:55:00,54.7,26.8,28.79,NW,315,6.9,6.9,34,0.00,CLR,,0.00,WeatherDisplay:10.37,2013-06-02 21:55:00,
2013-06-02 16:57:00,54.9,27.7,28.79,NNW,338,5.4,5.4,35,0.00,CLR,,0.00,WeatherDisplay:10.37,2013-06-02 21:57:00,
2013-06-02 16:58:00,54.9,27.0,28.79,NNE,22,5.8,5.8,34,0.00,CLR,,0.00,WeatherDisplay:10.37,2013-06-02 21:58:00,
2013-06-02 16:59:00,54.9,27.0,28.79,North,0,4.6,4.6,34,0.00,CLR,,0.00,WeatherDisplay:10.37,2013-06-02 21:59:00,
2013-06-02 17:01:00,54.0,26.2,28.79,NNW,338,11.5,11.5,34,0.00,CLR,,0.00,WeatherDisplay:10.37,2013-06-02 22:01:00,
2013-06-02 17:03:00,54.1,27.1,28.79,West,270,4.6,4.6,35,0.00,CLR,,0.00,WeatherDisplay:10.37,2013-06-02 22:03:00,
2013-06-02 17:04:00,54.3,27.2,28.79,NNW,338,5.8,5.8,35,0.00,CLR,,0.00,WeatherDisplay:10.37,2013-06-02 22:04:00,
2013-06-02 17:05:00,54.3,27.2,28.79,West,270,8.1,8.1,35,0.00,CLR,,0.00,WeatherDisplay:10.37,2013-06-02 22:05:00,
2013-06-02 17:06:00,54.5,27.4,28.79,WNW,292,8.1,8.1,35,0.00,CLR,,0.00,WeatherDisplay:10.37,2013-06-02 22:06:00,
2013-06-02 17:08:00,54.9,27.7,28.79,NNE,22,3.5,3.5,35,0.00,CLR,,0.00,WeatherDisplay:10.37,2013-06-02 22:08:00,
2013-06-02 17:09:00,54.9,27.7,28.79,NE,45,3.5,3.5,35,0.00,CLR,,0.00,WeatherDisplay:10.37,2013-06-02 22:09:00,
2013-06-02 17:10:00,55.0,27.9,28.79,NE,45,4.6,4.6,35,0.00,CLR,,0.00,WeatherDisplay:10.37,2013-06-02 22:10:00,
2013-06-02 17:11:00,54.9,27.0,28.79,NNE,22,4.6,4.6,34,0.00,CLR,,0.00,WeatherDisplay:10.37,2013-06-02 22:11:00,
2013-06-02 17:14:00,54.0,26.9,28.79,North,0,5.9,5.9,35,0.00,CLR,,0.00,WeatherDisplay:10.37,2013-06-02 22:14:00,
2013-06-02 17:15:00,54.1,26.4,28.79,NE,45,9.2,9.2,34,0.00,CLR,,0.00,WeatherDisplay:10.37,2013-06-02 22:15:00,
2013-06-02 17:16:00,54.1,27.1,28.79,North,0,5.8,5.8,35,0.00,CLR,,0.00,WeatherDisplay:10.37,2013-06-02 22:16:00,
2013-06-02 17:18:00,54.1,27.1,28.79,West,270,5.8,5.8,35,0.00,CLR,,0.00,WeatherDisplay:10.37,2013-06-02 22:18:00,
2013-06-02 17:19:00,54.3,27.2,28.79,NNW,338,6.9,6.9,35,0.00,CLR,,0.00,WeatherDisplay:10.37,2013-06-02 22:19:00,
2013-06-02 17:20:00,54.5,27.4,28.79,North,0,4.6,4.6,35,0.00,CLR,,0.00,WeatherDisplay:10.37,2013-06-02 22:20:00,
2013-06-02 17:21:00,54.7,27.5,28.79,NNW,338,3.5,3.5,35,0.00,CLR,,0.00,WeatherDisplay:10.37,2013-06-02 22:21:00,
2013-06-02 17:23:00,54.7,26.8,28.79,WNW,292,5.8,5.8,34,0.00,CLR,,0.00,WeatherDisplay:10.37,2013-06-02 22:23:00,
2013-06-02 17:24:00,54.9,27.0,28.79,WNW,292,5.8,5.8,34,0.00,CLR,,0.00,WeatherDisplay:10.37,2013-06-02 22:24:00,
2013-06-02 17:25:00,54.5,26.7,28.79,NW,315,8.1,8.1,34,0.00,CLR,,0.00,WeatherDisplay:10.37,2013-06-02 22:25:00,
2013-06-02 17:26:00,54.5,26.7,28.79,North,0,8.1,8.1,34,0.00,CLR,,0.00,WeatherDisplay:10.37,2013-06-02 22:26:00,
2013-06-02 17:28:00,54.5,26.7,28.79,NW,315,5.8,5.8,34,0.00,CLR,,0.00,WeatherDisplay:10.37,2013-06-02 22:28:00,
2013-06-02 17:29:00,54.5,26.7,28.79,North,0,4.6,4.6,34,0.00,CLR,,0.00,WeatherDisplay:10.37,2013-06-02 22:29:00,
2013-06-02 17:31:00,54.7,26.8,28.79,North,0,3.5,3.5,34,0.00,CLR,,0.00,WeatherDisplay:10.37,2013-06-02 22:31:00,
2013-06-02 17:34:00,54.3,26.5,28.79,NW,315,8.1,8.1,34,0.00,CLR,,0.00,WeatherDisplay:10.37,2013-06-02 22:34:00,
2013-06-02 17:35:00,54.3,26.5,28.79,NW,315,8.1,8.1,34,0.00,CLR,,0.00,WeatherDisplay:10.37,2013-06-02 22:35:00,
2013-06-02 17:36:00,54.0,26.2,28.79,WNW,292,9.2,9.2,34,0.00,CLR,,0.00,WeatherDisplay:10.37,2013-06-02 22:36:00,
2013-06-02 17:37:00,54.0,26.2,28.79,NW,315,8.1,8.1,34,0.00,CLR,,0.00,WeatherDisplay:10.37,2013-06-02 22:37:00,
2013-06-02 17:38:00,54.1,26.4,28.79,North,0,5.8,5.8,34,0.00,CLR,,0.00,WeatherDisplay:10.37,2013-06-02 22:38:00,
2013-06-02 17:39:00,54.1,26.4,28.79,North,0,4.6,4.6,34,0.00,CLR,,0.00,WeatherDisplay:10.37,2013-06-02 22:39:00,
2013-06-02 17:40:00,54.1,26.4,28.79,WNW,292,4.6,4.6,34,0.00,CLR,,0.00,WeatherDisplay:10.37,2013-06-02 22:40:00,
2013-06-02 17:41:00,54.5,26.7,28.79,WNW,292,4.7,4.7,34,0.00,CLR,,0.00,WeatherDisplay:10.37,2013-06-02 22:41:00,
2013-06-02 17:42:00,54.7,26.8,28.79,WSW,248,4.6,4.6,34,0.00,CLR,,0.00,WeatherDisplay:10.37,2013-06-02 22:42:00,
2013-06-02 17:43:00,54.7,26.8,28.79,North,0,4.6,4.6,34,0.00,CLR,,0.00,WeatherDisplay:10.37,2013-06-02 22:43:00,
2013-06-02 17:45:00,54.9,27.0,28.79,NW,307,2.0,5.0,34,0.00,CLR,,0.00,WeatherDisplay:10.37,2013-06-02 22:45:00,
2013-06-02 17:47:00,54.5,26.0,28.79,NE,45,5.8,5.8,33,0.00,CLR,,0.00,WeatherDisplay:10.37,2013-06-02 22:47:00,
2013-06-02 17:48:00,54.7,26.8,28.79,NW,315,6.2,6.2,34,0.00,CLR,,0.00,WeatherDisplay:10.37,2013-06-02 22:48:00,
2013-06-02 17:50:00,54.5,26.7,28.79,NW,323,5.0,7.0,34,0.00,CLR,,0.00,WeatherDisplay:10.37,2013-06-02 22:50:00,
2013-06-02 17:52:00,54.3,25.8,28.79,North,0,5.8,5.8,33,0.00,CLR,,0.00,WeatherDisplay:10.37,2013-06-02 22:52:00,
2013-06-02 17:53:00,54.3,25.8,28.79,NNE,22,6.0,6.0,33,0.00,CLR,,0.00,WeatherDisplay:10.37,2013-06-02 22:53:00,
2013-06-02 17:55:00,54.0,25.5,28.79,WNW,292,6.9,6.9,33,0.00,CLR,,0.00,WeatherDisplay:10.37,2013-06-02 22:55:00,
2013-06-02 17:57:00,54.0,25.5,28.79,WNW,292,5.9,5.9,33,0.00,CLR,,0.00,WeatherDisplay:10.37,2013-06-02 22:57:00,
2013-06-02 17:58:00,54.0,25.5,28.79,NW,315,8.1,8.1,33,0.00,CLR,,0.00,WeatherDisplay:10.37,2013-06-02 22:58:00,
2013-06-02 17:59:00,53.8,26.0,28.79,West,270,6.9,6.9,34,0.00,CLR,,0.00,WeatherDisplay:10.37,2013-06-02 22:59:00,
2013-06-02 18:00:00,54.0,26.2,28.79,NW,315,4.6,4.6,34,0.00,CLR,,0.00,WeatherDisplay:10.37,2013-06-02 23:00:00,
2013-06-02 18:02:00,54.0,26.2,28.79,WNW,292,5.8,5.8,34,0.00,CLR,,0.00,WeatherDisplay:10.37,2013-06-02 23:02:00,
2013-06-02 18:03:00,54.1,25.6,28.79,NW,315,5.8,5.8,33,0.00,CLR,,0.00,WeatherDisplay:10.37,2013-06-02 23:03:00,
2013-06-02 18:04:00,54.1,25.6,28.79,North,0,4.9,4.9,33,0.00,CLR,,0.00,WeatherDisplay:10.37,2013-06-02 23:04:00,
2013-06-02 18:05:00,54.1,25.6,28.79,WNW,292,5.8,5.8,33,0.00,CLR,,0.00,WeatherDisplay:10.37,2013-06-02 23:05:00,
2013-06-02 18:06:00,54.0,26.2,28.79,NW,315,7.4,7.4,34,0.00,CLR,,0.00,WeatherDisplay:10.37,2013-06-02 23:06:00,
2013-06-02 18:07:00,54.1,25.6,28.79,North,0,6.9,6.9,33,0.00,CLR,,0.00,WeatherDisplay:10.37,2013-06-02 23:07:00,
2013-06-02 18:09:00,54.3,25.8,28.79,WNW,292,3.5,3.5,33,0.00,CLR,,0.00,WeatherDisplay:10.37,2013-06-02 23:09:00,
2013-06-02 18:10:00,54.7,26.8,28.79,NW,315,3.5,3.5,34,0.00,CLR,,0.00,WeatherDisplay:10.37,2013-06-02 23:10:00,
2013-06-02 18:11:00,54.9,27.0,28.79,WNW,292,5.9,5.9,34,0.00,CLR,,0.00,WeatherDisplay:10.37,2013-06-02 23:11:00,
2013-06-02 18:12:00,54.5,26.7,28.79,North,0,5.8,5.8,34,0.00,CLR,,0.00,WeatherDisplay:10.37,2013-06-02 23:12:00,
2013-06-02 18:14:00,54.1,26.4,28.79,NNW,338,7.6,7.6,34,0.00,CLR,,0.00,WeatherDisplay:10.37,2013-06-02 23:14:00,
2013-06-02 18:16:00,53.8,26.0,28.79,NNE,22,9.2,9.2,34,0.00,CLR,,0.00,WeatherDisplay:10.37,2013-06-02 23:16:00,
2013-06-02 18:17:00,53.6,25.9,28.79,NNE,22,5.8,5.9,34,0.00,CLR,,0.00,WeatherDisplay:10.37,2013-06-02 23:17:00,
2013-06-02 18:19:00,53.6,25.9,28.79,North,0,5.9,5.9,34,0.00,CLR,,0.00,WeatherDisplay:10.37,2013-06-02 23:19:00,
2013-06-02 18:21:00,53.8,26.0,28.79,North,0,5.8,5.8,34,0.00,CLR,,0.00,WeatherDisplay:10.37,2013-06-02 23:21:00,
2013-06-02 18:22:00,53.8,26.0,28.79,NNE,22,3.5,3.5,34,0.00,CLR,,0.00,WeatherDisplay:10.37,2013-06-02 23:22:00,
2013-06-02 18:23:00,54.0,26.2,28.79,North,0,3.5,3.5,34,0.00,CLR,,0.00,WeatherDisplay:10.37,2013-06-02 23:23:00,
2013-06-02 18:25:00,53.8,26.0,28.78,North,355,5.0,7.0,34,0.00,CLR,,0.00,WeatherDisplay:10.37,2013-06-02 23:25:00,
2013-06-02 18:26:00,53.8,26.0,28.76,NW,315,4.7,4.7,34,0.00,CLR,,0.00,WeatherDisplay:10.37,2013-06-02 23:26:00,
2013-06-02 18:28:00,53.8,26.7,28.76,North,0,5.8,5.8,35,0.00,CLR,,0.00,WeatherDisplay:10.37,2013-06-02 23:28:00,
2013-06-02 18:30:00,53.6,26.6,28.76,North,0,5.8,5.8,35,0.00,CLR,,0.00,WeatherDisplay:10.37,2013-06-02 23:30:00,
2013-06-02 18:32:00,53.8,26.7,28.76,ENE,68,2.3,2.3,35,0.00,CLR,,0.00,WeatherDisplay:10.37,2013-06-02 23:32:00,
2013-06-02 18:33:00,54.0,26.9,28.76,NE,45,2.3,2.3,35,0.00,CLR,,0.00,WeatherDisplay:10.37,2013-06-02 23:33:00,
2013-06-02 18:34:00,54.0,26.9,28.76,North,0,5.8,5.8,35,0.00,CLR,,0.00,WeatherDisplay:10.37,2013-06-02 23:34:00,
2013-06-02 18:35:00,54.1,26.4,28.76,NW,315,4.6,4.6,34,0.00,CLR,,0.00,WeatherDisplay:10.37,2013-06-02 23:35:00,
2013-06-02 18:38:00,53.6,25.9,28.76,North,0,5.8,5.8,34,0.00,CLR,,0.00,WeatherDisplay:10.37,2013-06-02 23:38:00,
2013-06-02 18:39:00,53.4,25.7,28.76,North,0,5.8,5.8,34,0.00,CLR,,0.00,WeatherDisplay:10.37,2013-06-02 23:39:00,
2013-06-02 18:40:00,53.4,26.4,28.79,North,0,5.8,5.8,35,0.00,CLR,,0.00,WeatherDisplay:10.37,2013-06-02 23:40:00,
2013-06-02 18:43:00,52.9,25.9,28.79,NNW,338,8.1,8.1,35,0.00,CLR,,0.00,WeatherDisplay:10.37,2013-06-02 23:43:00,
2013-06-02 18:44:00,52.9,25.9,28.79,North,0,8.1,8.1,35,0.00,CLR,,0.00,WeatherDisplay:10.37,2013-06-02 23:44:00,
2013-06-02 18:46:00,52.9,25.2,28.79,North,0,5.8,5.8,34,0.00,CLR,,0.00,WeatherDisplay:10.37,2013-06-02 23:46:00,
2013-06-02 18:49:00,52.9,25.2,28.79,North,0,5.8,5.8,34,0.00,CLR,,0.00,WeatherDisplay:10.37,2013-06-02 23:49:00,
2013-06-02 18:50:00,53.1,25.4,28.79,North,0,5.8,5.8,34,0.00,CLR,,0.00,WeatherDisplay:10.37,2013-06-02 23:50:00,
2013-06-02 18:51:00,53.2,26.3,28.79,NW,315,3.5,3.5,35,0.00,CLR,,0.00,WeatherDisplay:10.37,2013-06-02 23:51:00,
2013-06-02 18:52:00,53.4,26.4,28.79,ENE,68,3.5,3.5,35,0.00,CLR,,0.00,WeatherDisplay:10.37,2013-06-02 23:52:00,
2013-06-02 18:55:00,53.1,25.5,28.79,North,3,3.0,5.0,34,0.00,CLR,,0.00,WeatherDisplay:10.37,2013-06-02 23:55:00,
2013-06-02 18:56:00,53.1,25.4,28.79,NNW,338,4.6,4.6,34,0.00,CLR,,0.00,WeatherDisplay:10.37,2013-06-02 23:56:00,
2013-06-02 18:57:00,53.1,25.4,28.79,North,0,3.6,3.6,34,0.00,CLR,,0.00,WeatherDisplay:10.37,2013-06-02 23:57:00,
2013-06-02 19:00:00,52.7,25.1,28.79,North,357,3.0,6.0,34,0.00,CLR,,0.00,WeatherDisplay:10.37,2013-06-03 00:00:00,
2013-06-02 19:01:00,52.5,24.9,28.79,NNW,338,5.8,5.8,34,0.00,CLR,,0.00,WeatherDisplay:10.37,2013-06-03 00:01:00,
2013-06-02 19:03:00,52.2,25.3,28.79,NE,45,4.6,4.6,35,0.00,CLR,,0.00,WeatherDisplay:10.37,2013-06-03 00:03:00,
2013-06-02 19:05:00,52.0,25.1,28.79,NNW,338,2.3,2.3,35,0.00,CLR,,0.00,WeatherDisplay:10.37,2013-06-03 00:05:00,
2013-06-02 19:06:00,51.8,25.0,28.79,NNW,338,2.6,2.6,35,0.00,CLR,,0.00,WeatherDisplay:10.37,2013-06-03 00:06:00,
2013-06-02 19:07:00,51.8,25.0,28.79,NNW,338,2.6,2.6,35,0.00,CLR,,0.00,WeatherDisplay:10.37,2013-06-03 00:07:00,
2013-06-02 19:08:00,51.6,24.8,28.79,WNW,292,2.3,2.3,35,0.00,CLR,,0.00,WeatherDisplay:10.37,2013-06-03 00:08:00,
2013-06-02 19:10:00,51.4,24.7,28.79,NW,315,4.6,4.6,35,0.00,CLR,,0.00,WeatherDisplay:10.37,2013-06-03 00:10:00,
2013-06-02 19:11:00,51.1,24.3,28.79,NNW,338,4.6,4.6,35,0.00,CLR,,0.00,WeatherDisplay:10.37,2013-06-03 00:11:00,
2013-06-02 19:12:00,51.1,24.3,28.79,NW,315,4.6,4.6,35,0.00,CLR,,0.00,WeatherDisplay:10.37,2013-06-03 00:12:00,
2013-06-02 19:13:00,51.1,24.3,28.79,NW,315,3.5,3.5,35,0.00,CLR,,0.00,WeatherDisplay:10.37,2013-06-03 00:13:00,
2013-06-02 19:15:00,51.1,24.3,28.79,NW,315,2.3,2.3,35,0.00,CLR,,0.00,WeatherDisplay:10.37,2013-06-03 00:15:00,
2013-06-02 19:17:00,51.1,25.0,28.79,North,0,2.3,2.3,36,0.00,CLR,,0.00,WeatherDisplay:10.37,2013-06-03 00:17:00,
2013-06-02 19:18:00,51.1,25.0,28.79,North,0,2.3,2.3,36,0.00,CLR,,0.00,WeatherDisplay:10.37,2013-06-03 00:18:00,
2013-06-02 19:20:00,51.6,25.5,28.79,North,0,2.3,2.3,36,0.00,CLR,,0.00,WeatherDisplay:10.37,2013-06-03 00:20:00,
2013-06-02 19:22:00,51.6,25.5,28.79,NW,315,3.5,3.5,36,0.00,CLR,,0.00,WeatherDisplay:10.37,2013-06-03 00:22:00,
2013-06-02 19:23:00,51.8,25.7,28.79,NW,315,2.3,2.3,36,0.00,CLR,,0.00,WeatherDisplay:10.37,2013-06-03 00:23:00,
2013-06-02 19:24:00,51.8,25.7,28.79,NW,315,2.3,2.3,36,0.00,CLR,,0.00,WeatherDisplay:10.37,2013-06-03 00:24:00,
2013-06-02 19:25:00,52.0,25.8,28.79,NW,315,2.9,2.9,36,0.00,CLR,,0.00,WeatherDisplay:10.37,2013-06-03 00:25:00,
2013-06-02 19:27:00,52.0,25.8,28.79,NW,315,3.5,3.5,36,0.00,CLR,,0.00,WeatherDisplay:10.37,2013-06-03 00:27:00,
2013-06-02 19:28:00,52.0,25.8,28.79,NW,315,3.6,3.6,36,0.00,CLR,,0.00,WeatherDisplay:10.37,2013-06-03 00:28:00,
2013-06-02 19:30:00,51.8,25.7,28.79,West,270,2.4,2.4,36,0.00,CLR,,0.00,WeatherDisplay:10.37,2013-06-03 00:30:00,
2013-06-02 19:31:00,51.8,25.7,28.79,West,270,2.4,2.4,36,0.00,CLR,,0.00,WeatherDisplay:10.37,2013-06-03 00:31:00,
2013-06-02 19:32:00,51.8,25.7,28.79,NW,315,3.3,3.3,36,0.00,CLR,,0.00,WeatherDisplay:10.37,2013-06-03 00:32:00,
2013-06-02 19:33:00,51.6,25.5,28.79,NW,315,4.6,4.6,36,0.00,CLR,,0.00,WeatherDisplay:10.37,2013-06-03 00:33:00,
2013-06-02 19:36:00,51.3,25.8,28.79,NW,315,2.3,2.3,37,0.00,CLR,,0.00,WeatherDisplay:10.37,2013-06-03 00:36:00,
2013-06-02 19:37:00,51.1,25.7,28.79,NW,315,2.3,2.3,37,0.00,CLR,,0.00,WeatherDisplay:10.37,2013-06-03 00:37:00,
2013-06-02 19:38:00,50.9,25.5,28.79,NW,315,2.4,2.4,37,0.00,CLR,,0.00,WeatherDisplay:10.37,2013-06-03 00:38:00,
2013-06-02 19:39:00,50.9,25.5,28.79,WNW,292,3.5,3.5,37,0.00,CLR,,0.00,WeatherDisplay:10.37,2013-06-03 00:39:00,
2013-06-02 19:41:00,50.7,26.0,28.79,West,270,3.5,3.5,38,0.00,CLR,,0.00,WeatherDisplay:10.37,2013-06-03 00:41:00,
2013-06-02 19:42:00,50.5,25.8,28.79,North,0,3.5,3.5,38,0.00,CLR,,0.00,WeatherDisplay:10.37,2013-06-03 00:42:00,
2013-06-02 19:43:00,50.5,25.8,28.79,WNW,292,1.2,0.0,38,0.00,CLR,,0.00,WeatherDisplay:10.37,2013-06-03 00:43:00,
2013-06-02 19:44:00,50.4,25.7,28.79,NW,315,2.2,0.0,38,0.00,CLR,,0.00,WeatherDisplay:10.37,2013-06-03 00:44:00,
2013-06-02 19:46:00,50.4,26.3,28.79,WNW,292,2.6,2.6,39,0.00,CLR,,0.00,WeatherDisplay:10.37,2013-06-03 00:46:00,
2013-06-02 19:48:00,50.2,26.1,28.79,NNW,338,2.3,2.3,39,0.00,CLR,,0.00,WeatherDisplay:10.37,2013-06-03 00:48:00,
2013-06-02 19:49:00,50.2,26.1,28.79,WNW,292,2.3,2.3,39,0.00,CLR,,0.00,WeatherDisplay:10.37,2013-06-03 00:49:00,
2013-06-02 19:51:00,49.8,25.8,28.79,NW,315,3.5,3.5,39,0.00,CLR,,0.00,WeatherDisplay:10.37,2013-06-03 00:51:00,
2013-06-02 19:53:00,49.6,26.3,28.79,WNW,292,3.5,3.5,40,0.00,CLR,,0.00,WeatherDisplay:10.37,2013-06-03 00:53:00,
2013-06-02 19:54:00,49.6,26.3,28.79,NW,315,2.4,2.4,40,0.00,CLR,,0.00,WeatherDisplay:10.37,2013-06-03 00:54:00,
2013-06-02 19:55:00,49.6,26.3,28.79,NW,315,2.6,2.6,40,0.00,CLR,,0.00,WeatherDisplay:10.37,2013-06-03 00:55:00,
2013-06-02 19:57:00,49.3,26.0,28.79,WNW,292,2.3,2.3,40,0.00,CLR,,0.00,WeatherDisplay:10.37,2013-06-03 00:57:00,
2013-06-02 19:58:00,49.1,25.8,28.79,NW,315,2.3,0.0,40,0.00,CLR,,0.00,WeatherDisplay:10.37,2013-06-03 00:58:00,
2013-06-02 19:59:00,49.1,25.8,28.79,NW,315,2.6,2.6,40,0.00,CLR,,0.00,WeatherDisplay:10.37,2013-06-03 00:59:00,
2013-06-02 20:00:00,49.1,25.8,28.79,West,270,2.3,2.3,40,0.00,CLR,,0.00,WeatherDisplay:10.37,2013-06-03 01:00:00,
2013-06-02 20:02:00,48.6,26.5,28.79,WNW,292,2.3,0.0,42,0.00,CLR,,0.00,WeatherDisplay:10.37,2013-06-03 01:02:00,
2013-06-02 20:03:00,48.6,26.5,28.79,WNW,292,2.3,2.3,42,0.00,CLR,,0.00,WeatherDisplay:10.37,2013-06-03 01:03:00,
2013-06-02 20:05:00,48.4,26.3,28.79,NW,315,2.3,2.3,42,0.00,CLR,,0.00,WeatherDisplay:10.37,2013-06-03 01:05:00,
2013-06-02 20:06:00,48.2,26.2,28.79,NW,315,2.3,2.3,42,0.00,CLR,,0.00,WeatherDisplay:10.37,2013-06-03 01:06:00,
2013-06-02 20:08:00,48.2,27.3,28.79,NW,315,2.3,2.3,44,0.00,CLR,,0.00,WeatherDisplay:10.37,2013-06-03 01:08:00,
2013-06-02 20:10:00,48.2,27.3,28.82,WNW,292,2.3,2.3,44,0.00,CLR,,0.00,WeatherDisplay:10.37,2013-06-03 01:10:00,
2013-06-02 20:11:00,48.0,27.1,28.82,NW,315,2.3,2.3,44,0.00,CLR,,0.00,WeatherDisplay:10.37,2013-06-03 01:11:00,
2013-06-02 20:13:00,48.0,27.7,28.82,NW,315,0.0,0.0,45,0.00,CLR,,0.00,WeatherDisplay:10.37,2013-06-03 01:13:00,
2013-06-02 20:15:00,48.0,27.7,28.82,NW,315,0.0,0.0,45,0.00,CLR,,0.00,WeatherDisplay:10.37,2013-06-03 01:15:00,
2013-06-02 20:16:00,47.8,27.5,28.82,NW,315,0.0,0.0,45,0.00,CLR,,0.00,WeatherDisplay:10.37,2013-06-03 01:16:00,
2013-06-02 20:18:00,47.7,27.3,28.82,NW,315,0.0,0.0,45,0.00,CLR,,0.00,WeatherDisplay:10.37,2013-06-03 01:18:00,
2013-06-02 20:19:00,47.7,27.3,28.82,NW,315,0.0,0.0,45,0.00,CLR,,0.00,WeatherDisplay:10.37,2013-06-03 01:19:00,
2013-06-02 20:20:00,47.5,27.7,28.82,NW,315,0.0,0.0,46,0.00,CLR,,0.00,WeatherDisplay:10.37,2013-06-03 01:20:00,
2013-06-02 20:21:00,47.3,27.0,28.82,West,270,2.4,2.4,45,0.00,CLR,,0.00,WeatherDisplay:10.37,2013-06-03 01:21:00,
2013-06-02 20:22:00,47.3,27.5,28.82,West,270,2.3,2.3,46,0.00,CLR,,0.00,WeatherDisplay:10.37,2013-06-03 01:22:00,
2013-06-02 20:24:00,46.9,27.2,28.82,West,270,2.3,2.3,46,0.00,CLR,,0.00,WeatherDisplay:10.37,2013-06-03 01:24:00,
2013-06-02 20:25:00,46.8,28.1,28.79,WSW,248,2.6,2.6,48,0.00,CLR,,0.00,WeatherDisplay:10.37,2013-06-03 01:25:00,
2013-06-02 20:26:00,46.4,28.3,28.79,West,270,2.3,2.3,49,0.00,CLR,,0.00,WeatherDisplay:10.37,2013-06-03 01:26:00,
2013-06-02 20:27:00,46.4,28.3,28.79,WSW,248,2.3,2.3,49,0.00,CLR,,0.00,WeatherDisplay:10.37,2013-06-03 01:27:00,
2013-06-02 20:29:00,46.2,28.6,28.79,West,270,0.0,0.0,50,0.00,CLR,,0.00,WeatherDisplay:10.37,2013-06-03 01:29:00,
2013-06-02 20:30:00,46.0,27.9,28.79,WNW,292,0.0,0.0,49,0.00,CLR,,0.00,WeatherDisplay:10.37,2013-06-03 01:30:00,
2013-06-02 20:31:00,45.9,28.3,28.79,WNW,292,1.2,0.0,50,0.00,CLR,,0.00,WeatherDisplay:10.37,2013-06-03 01:31:00,
2013-06-02 20:33:00,45.5,28.4,28.79,NW,315,0.0,0.0,51,0.00,CLR,,0.00,WeatherDisplay:10.37,2013-06-03 01:33:00,
2013-06-02 20:34:00,45.3,27.8,28.79,WNW,292,0.0,0.0,50,0.00,CLR,,0.00,WeatherDisplay:10.37,2013-06-03 01:34:00,
2013-06-02 20:35:00,45.3,27.8,28.79,NW,315,3.5,3.5,50,0.00,CLR,,0.00,WeatherDisplay:10.37,2013-06-03 01:35:00,
2013-06-02 20:36:00,45.0,28.4,28.79,WSW,248,3.5,3.5,52,0.00,CLR,,0.00,WeatherDisplay:10.37,2013-06-03 01:36:00,
2013-06-02 20:38:00,44.6,28.5,28.79,WNW,292,2.3,2.3,53,0.00,CLR,,0.00,WeatherDisplay:10.37,2013-06-03 01:38:00,
2013-06-02 20:40:00,44.4,28.3,28.79,West,270,2.4,2.4,53,0.00,CLR,,0.00,WeatherDisplay:10.37,2013-06-03 01:40:00,
2013-06-02 20:41:00,44.4,28.3,28.79,NW,315,2.3,2.3,53,0.00,CLR,,0.00,WeatherDisplay:10.37,2013-06-03 01:41:00,
2013-06-02 20:42:00,44.2,29.1,28.79,West,270,2.3,2.3,55,0.00,CLR,,0.00,WeatherDisplay:10.37,2013-06-03 01:42:00,
2013-06-02 20:43:00,43.9,28.7,28.79,NNW,338,2.0,2.0,55,0.00,CLR,,0.00,WeatherDisplay:10.37,2013-06-03 01:43:00,
2013-06-02 20:45:00,43.7,29.5,28.79,NNW,338,2.3,2.3,57,0.00,CLR,,0.00,WeatherDisplay:10.37,2013-06-03 01:45:00,
2013-06-02 20:46:00,43.7,29.5,28.79,WSW,248,0.0,0.0,57,0.00,CLR,,0.00,WeatherDisplay:10.37,2013-06-03 01:46:00,
2013-06-02 20:47:00,43.5,29.3,28.79,NW,315,2.3,2.3,57,0.00,CLR,,0.00,WeatherDisplay:10.37,2013-06-03 01:47:00,
2013-06-02 20:48:00,43.3,29.5,28.79,NW,315,1.2,1.2,58,0.00,CLR,,0.00,WeatherDisplay:10.37,2013-06-03 01:48:00,
2013-06-02 20:50:00,43.2,29.4,28.79,WNW,292,1.4,0.0,58,0.00,CLR,,0.00,WeatherDisplay:10.37,2013-06-03 01:50:00,
2013-06-02 20:51:00,42.8,29.5,28.79,NW,315,1.2,1.2,59,0.00,CLR,,0.00,WeatherDisplay:10.37,2013-06-03 01:51:00,
2013-06-02 20:52:00,42.8,29.5,28.79,West,270,1.2,0.0,59,0.00,CLR,,0.00,WeatherDisplay:10.37,2013-06-03 01:52:00,
2013-06-02 20:54:00,42.6,29.3,28.79,WNW,292,1.2,0.0,59,0.00,CLR,,0.00,WeatherDisplay:10.37,2013-06-03 01:54:00,
2013-06-02 20:55:00,42.4,29.1,28.79,WNW,292,2.3,0.0,59,0.00,CLR,,0.00,WeatherDisplay:10.37,2013-06-03 01:55:00,
2013-06-02 20:56:00,42.4,29.9,28.79,NW,315,1.2,0.0,61,0.00,CLR,,0.00,WeatherDisplay:10.37,2013-06-03 01:56:00,
2013-06-02 20:57:00,42.1,29.6,28.79,WNW,292,2.3,2.3,61,0.00,CLR,,0.00,WeatherDisplay:10.37,2013-06-03 01:57:00,
2013-06-02 20:58:00,42.1,29.6,28.79,WNW,292,2.3,2.3,61,0.00,CLR,,0.00,WeatherDisplay:10.37,2013-06-03 01:58:00,
2013-06-02 20:59:00,42.1,29.6,28.79,NW,315,0.0,0.0,61,0.00,CLR,,0.00,WeatherDisplay:10.37,2013-06-03 01:59:00,
2013-06-02 21:01:00,41.9,29.4,28.79,NW,315,0.0,0.0,61,0.00,CLR,,0.00,WeatherDisplay:10.37,2013-06-03 02:01:00,
2013-06-02 21:02:00,41.7,29.6,28.79,NW,315,1.2,0.0,62,0.00,CLR,,0.00,WeatherDisplay:10.37,2013-06-03 02:02:00,
2013-06-02 21:03:00,41.5,29.5,28.79,NW,315,1.2,1.2,62,0.00,CLR,,0.00,WeatherDisplay:10.37,2013-06-03 02:03:00,
2013-06-02 21:05:00,41.4,29.7,28.79,NNW,338,1.2,0.0,63,0.00,CLR,,0.00,WeatherDisplay:10.37,2013-06-03 02:05:00,
2013-06-02 21:07:00,41.4,30.1,28.79,NNW,338,1.2,0.0,64,0.00,CLR,,0.00,WeatherDisplay:10.37,2013-06-03 02:07:00,
2013-06-02 21:08:00,41.2,30.3,28.79,NNW,338,1.2,0.0,65,0.00,CLR,,0.00,WeatherDisplay:10.37,2013-06-03 02:08:00,
2013-06-02 21:09:00,41.0,30.5,28.79,NNW,338,2.0,0.0,66,0.00,CLR,,0.00,WeatherDisplay:10.37,2013-06-03 02:09:00,
2013-06-02 21:11:00,41.0,30.5,28.82,NW,315,1.2,1.2,66,0.00,CLR,,0.00,WeatherDisplay:10.37,2013-06-03 02:11:00,
2013-06-02 21:12:00,40.8,30.3,28.82,NW,315,2.3,2.3,66,0.00,CLR,,0.00,WeatherDisplay:10.37,2013-06-03 02:12:00,
2013-06-02 21:13:00,40.8,30.3,28.82,NW,315,2.3,2.3,66,0.00,CLR,,0.00,WeatherDisplay:10.37,2013-06-03 02:13:00,
2013-06-02 21:14:00,40.6,30.5,28.82,NW,315,2.3,2.3,67,0.00,CLR,,0.00,WeatherDisplay:10.37,2013-06-03 02:14:00,
2013-06-02 21:16:00,40.5,30.4,28.82,NW,315,1.2,0.0,67,0.00,CLR,,0.00,WeatherDisplay:10.37,2013-06-03 02:16:00,
2013-06-02 21:17:00,40.5,30.4,28.82,NW,315,2.3,2.3,67,0.00,CLR,,0.00,WeatherDisplay:10.37,2013-06-03 02:17:00,
2013-06-02 21:18:00,40.5,30.4,28.82,NW,315,2.3,2.3,67,0.00,CLR,,0.00,WeatherDisplay:10.37,2013-06-03 02:18:00,
2013-06-02 21:20:00,40.3,30.2,28.82,NW,315,0.0,0.0,67,0.00,CLR,,0.00,WeatherDisplay:10.37,2013-06-03 02:20:00,
2013-06-02 21:22:00,40.1,30.4,28.82,NW,315,0.0,0.0,68,0.00,CLR,,0.00,WeatherDisplay:10.37,2013-06-03 02:22:00,
2013-06-02 21:23:00,39.9,29.8,28.82,NW,315,0.0,0.0,67,0.00,CLR,,0.00,WeatherDisplay:10.37,2013-06-03 02:23:00,
2013-06-02 21:25:00,39.9,30.2,28.82,NNE,22,0.0,0.0,68,0.00,CLR,,0.00,WeatherDisplay:10.37,2013-06-03 02:25:00,
2013-06-02 21:28:00,39.9,30.6,28.82,ENE,68,0.0,0.0,69,0.00,CLR,,0.00,WeatherDisplay:10.37,2013-06-03 02:28:00,
2013-06-02 21:29:00,39.7,30.4,28.82,SW,225,0.0,0.0,69,0.00,CLR,,0.00,WeatherDisplay:10.37,2013-06-03 02:29:00,
2013-06-02 21:31:00,39.6,30.2,28.82,WSW,248,0.0,0.0,69,0.00,CLR,,0.00,WeatherDisplay:10.37,2013-06-03 02:31:00,
2013-06-02 21:33:00,39.6,30.6,28.82,WSW,248,0.0,0.0,70,0.00,CLR,,0.00,WeatherDisplay:10.37,2013-06-03 02:33:00,
2013-06-02 21:34:00,39.6,30.6,28.82,West,270,0.0,0.0,70,0.00,CLR,,0.00,WeatherDisplay:10.37,2013-06-03 02:34:00,
2013-06-02 21:37:00,39.4,30.4,28.82,WSW,248,2.3,2.3,70,0.00,CLR,,0.00,WeatherDisplay:10.37,2013-06-03 02:37:00,
2013-06-02 21:38:00,39.4,30.8,28.82,WSW,248,0.0,0.0,71,0.00,CLR,,0.00,WeatherDisplay:10.37,2013-06-03 02:38:00,
2013-06-02 21:39:00,39.4,30.8,28.82,WSW,248,0.0,0.0,71,0.00,CLR,,0.00,WeatherDisplay:10.37,2013-06-03 02:39:00,
2013-06-02 21:40:00,39.2,30.9,28.82,WSW,248,0.0,0.0,72,0.00,CLR,,0.00,WeatherDisplay:10.37,2013-06-03 02:40:00,
2013-06-02 21:42:00,39.0,30.4,28.82,WSW,248,0.0,0.0,71,0.00,CLR,,0.00,WeatherDisplay:10.37,2013-06-03 02:42:00,
2013-06-02 21:43:00,38.8,30.2,28.82,WSW,248,0.0,0.0,71,0.00,CLR,,0.00,WeatherDisplay:10.37,2013-06-03 02:43:00,
2013-06-02 21:44:00,38.8,30.2,28.82,WSW,248,0.0,0.0,71,0.00,CLR,,0.00,WeatherDisplay:10.37,2013-06-03 02:44:00,
2013-06-02 21:45:00,38.8,30.6,28.82,WSW,248,0.0,0.0,72,0.00,CLR,,0.00,WeatherDisplay:10.37,2013-06-03 02:45:00,
2013-06-02 21:47:00,38.7,30.4,28.82,WSW,248,0.0,0.0,72,0.00,CLR,,0.00,WeatherDisplay:10.37,2013-06-03 02:47:00,
2013-06-02 21:49:00,38.5,30.2,28.82,West,270,0.0,0.0,72,0.00,CLR,,0.00,WeatherDisplay:10.37,2013-06-03 02:49:00,
2013-06-02 21:50:00,38.5,30.2,28.82,West,270,0.0,0.0,72,0.00,CLR,,0.00,WeatherDisplay:10.37,2013-06-03 02:50:00,
2013-06-02 21:52:00,38.3,29.7,28.82,West,270,0.0,0.0,71,0.00,CLR,,0.00,WeatherDisplay:10.37,2013-06-03 02:52:00,
2013-06-02 21:53:00,38.3,30.1,28.82,West,270,0.0,0.0,72,0.00,CLR,,0.00,WeatherDisplay:10.37,2013-06-03 02:53:00,
2013-06-02 21:55:00,38.3,30.1,28.85,West,270,0.0,0.0,72,0.00,CLR,,0.00,WeatherDisplay:10.37,2013-06-03 02:55:00,
2013-06-02 21:56:00,38.1,29.9,28.85,West,270,0.0,0.0,72,0.00,CLR,,0.00,WeatherDisplay:10.37,2013-06-03 02:56:00,
2013-06-02 21:58:00,37.9,30.1,28.85,West,270,0.0,0.0,73,0.00,CLR,,0.00,WeatherDisplay:10.37,2013-06-03 02:58:00,
2013-06-02 21:59:00,37.8,29.9,28.85,WNW,292,0.0,0.0,73,0.00,CLR,,0.00,WeatherDisplay:10.37,2013-06-03 02:59:00,
2013-06-02 22:01:00,37.8,29.9,28.85,NW,315,0.0,0.9,73,0.00,CLR,,0.00,WeatherDisplay:10.37,2013-06-03 03:01:00,
2013-06-02 22:02:00,37.8,29.9,28.85,NW,315,2.3,0.0,73,0.00,CLR,,0.00,WeatherDisplay:10.37,2013-06-03 03:02:00,
2013-06-02 22:04:00,37.6,29.7,28.85,NW,315,0.0,0.0,73,0.00,CLR,,0.00,WeatherDisplay:10.37,2013-06-03 03:04:00,
2013-06-02 22:06:00,37.6,30.0,28.85,NW,315,0.0,0.0,74,0.00,CLR,,0.00,WeatherDisplay:10.37,2013-06-03 03:06:00,
2013-06-02 22:07:00,37.6,30.0,28.85,NW,315,0.0,0.0,74,0.00,CLR,,0.00,WeatherDisplay:10.37,2013-06-03 03:07:00,
2013-06-02 22:08:00,37.6,30.0,28.85,NW,315,0.0,0.0,74,0.00,CLR,,0.00,WeatherDisplay:10.37,2013-06-03 03:08:00,
2013-06-02 22:10:00,37.4,29.9,28.85,NW,315,0.0,0.0,74,0.00,CLR,,0.00,WeatherDisplay:10.37,2013-06-03 03:10:00,
2013-06-02 22:11:00,37.4,29.9,28.85,NW,315,0.0,0.0,74,0.00,CLR,,0.00,WeatherDisplay:10.37,2013-06-03 03:11:00,
2013-06-02 22:12:00,37.4,29.9,28.85,NW,315,0.0,0.0,74,0.00,CLR,,0.00,WeatherDisplay:10.37,2013-06-03 03:12:00,
2013-06-02 22:13:00,37.4,29.9,28.85,WNW,292,2.3,2.3,74,0.00,CLR,,0.00,WeatherDisplay:10.37,2013-06-03 03:13:00,
2013-06-02 22:15:00,37.2,30.0,28.85,WNW,292,0.0,0.0,75,0.00,CLR,,0.00,WeatherDisplay:10.37,2013-06-03 03:15:00,
2013-06-02 22:17:00,37.2,30.0,28.85,WNW,292,0.0,0.0,75,0.00,CLR,,0.00,WeatherDisplay:10.37,2013-06-03 03:17:00,
2013-06-02 22:18:00,37.0,29.8,28.85,WNW,292,2.2,2.2,75,0.00,CLR,,0.00,WeatherDisplay:10.37,2013-06-03 03:18:00,
2013-06-02 22:20:00,37.0,30.2,28.85,West,270,2.3,0.0,76,0.00,CLR,,0.00,WeatherDisplay:10.37,2013-06-03 03:20:00,
2013-06-02 22:22:00,37.0,29.8,28.85,WNW,292,1.4,0.0,75,0.00,CLR,,0.00,WeatherDisplay:10.37,2013-06-03 03:22:00,
2013-06-02 22:23:00,36.9,30.0,28.85,WNW,292,1.6,0.0,76,0.00,CLR,,0.00,WeatherDisplay:10.37,2013-06-03 03:23:00,
2013-06-02 22:26:00,36.9,30.0,28.85,NW,315,0.0,0.0,76,0.00,CLR,,0.00,WeatherDisplay:10.37,2013-06-03 03:26:00,
2013-06-02 22:27:00,36.7,29.8,28.85,NW,315,1.2,0.0,76,0.00,CLR,,0.00,WeatherDisplay:10.37,2013-06-03 03:27:00,
2013-06-02 22:28:00,36.7,29.8,28.85,NW,315,1.2,0.0,76,0.00,CLR,,0.00,WeatherDisplay:10.37,2013-06-03 03:28:00,
2013-06-02 22:29:00,36.7,29.8,28.85,NW,315,1.2,0.0,76,0.00,CLR,,0.00,WeatherDisplay:10.37,2013-06-03 03:29:00,
2013-06-02 22:31:00,36.5,30.0,28.85,NW,315,2.3,0.0,77,0.00,CLR,,0.00,WeatherDisplay:10.37,2013-06-03 03:31:00,
2013-06-02 22:33:00,36.5,30.0,28.85,NW,315,0.0,0.0,77,0.00,CLR,,0.00,WeatherDisplay:10.37,2013-06-03 03:33:00,
2013-06-02 22:34:00,36.3,29.8,28.85,NW,315,0.0,0.0,77,0.00,CLR,,0.00,WeatherDisplay:10.37,2013-06-03 03:34:00,
2013-06-02 22:37:00,36.3,29.8,28.85,NW,315,0.0,0.0,77,0.00,CLR,,0.00,WeatherDisplay:10.37,2013-06-03 03:37:00,
2013-06-02 22:38:00,36.3,29.8,28.85,NW,315,0.0,0.0,77,0.00,CLR,,0.00,WeatherDisplay:10.37,2013-06-03 03:38:00,
2013-06-02 22:39:00,36.1,29.9,28.85,NW,315,0.0,0.0,78,0.00,CLR,,0.00,WeatherDisplay:10.37,2013-06-03 03:39:00,
2013-06-02 22:42:00,36.1,29.9,28.85,NW,315,0.0,0.0,78,0.00,CLR,,0.00,WeatherDisplay:10.37,2013-06-03 03:42:00,
2013-06-02 22:43:00,36.0,29.8,28.85,West,270,2.3,0.0,78,0.00,CLR,,0.00,WeatherDisplay:10.37,2013-06-03 03:43:00,
2013-06-02 22:44:00,36.0,29.8,28.85,WNW,292,2.3,2.3,78,0.00,CLR,,0.00,WeatherDisplay:10.37,2013-06-03 03:44:00,
2013-06-02 22:45:00,36.0,30.1,28.85,WNW,292,1.6,0.0,79,0.00,CLR,,0.00,WeatherDisplay:10.37,2013-06-03 03:45:00,
2013-06-02 22:47:00,36.0,30.1,28.85,WNW,292,2.3,2.3,79,0.00,CLR,,0.00,WeatherDisplay:10.37,2013-06-03 03:47:00,
2013-06-02 22:48:00,35.8,29.9,28.85,WNW,292,0.0,0.0,79,0.00,CLR,,0.00,WeatherDisplay:10.37,2013-06-03 03:48:00,
2013-06-02 22:49:00,36.0,30.7,28.85,West,270,2.9,2.9,81,0.00,CLR,,0.00,WeatherDisplay:10.37,2013-06-03 03:49:00,
2013-06-02 22:50:00,36.0,30.7,28.85,West,270,2.4,2.4,81,0.00,CLR,,0.00,WeatherDisplay:10.37,2013-06-03 03:50:00,
2013-06-02 22:52:00,35.8,30.8,28.85,WNW,292,2.3,2.3,82,0.00,CLR,,0.00,WeatherDisplay:10.37,2013-06-03 03:52:00,
2013-06-02 22:54:00,35.8,30.8,28.85,NW,315,0.0,0.0,82,0.00,CLR,,0.00,WeatherDisplay:10.37,2013-06-03 03:54:00,
2013-06-02 22:55:00,35.8,30.8,28.85,NW,315,0.0,0.0,82,0.00,CLR,,0.00,WeatherDisplay:10.37,2013-06-03 03:55:00,
2013-06-02 22:57:00,35.6,30.6,28.85,NW,315,0.0,0.0,82,0.00,CLR,,0.00,WeatherDisplay:10.37,2013-06-03 03:57:00,
2013-06-02 22:59:00,35.6,30.6,28.85,NW,315,0.0,0.0,82,0.00,CLR,,0.00,WeatherDisplay:10.37,2013-06-03 03:59:00,
2013-06-02 23:00:00,35.6,30.6,28.85,NW,315,0.0,0.0,82,0.00,CLR,,0.00,WeatherDisplay:10.37,2013-06-03 04:00:00,
2013-06-02 23:01:00,35.4,30.5,28.85,NW,315,0.0,0.0,82,0.00,CLR,,0.00,WeatherDisplay:10.37,2013-06-03 04:01:00,
2013-06-02 23:06:00,35.2,30.3,28.85,NW,315,0.0,0.0,82,0.00,CLR,,0.00,WeatherDisplay:10.37,2013-06-03 04:06:00,
2013-06-02 23:07:00,35.1,30.1,28.85,NW,315,0.0,0.0,82,0.00,CLR,,0.00,WeatherDisplay:10.37,2013-06-03 04:07:00,
2013-06-02 23:11:00,35.1,30.1,28.85,WNW,292,1.2,1.2,82,0.00,CLR,,0.00,WeatherDisplay:10.37,2013-06-03 04:11:00,
2013-06-02 23:12:00,35.1,30.1,28.85,WNW,292,1.2,1.2,82,0.00,CLR,,0.00,WeatherDisplay:10.37,2013-06-03 04:12:00,
2013-06-02 23:17:00,34.9,29.9,28.85,WNW,292,0.0,0.0,82,0.00,CLR,,0.00,WeatherDisplay:10.37,2013-06-03 04:17:00,
2013-06-02 23:18:00,34.9,30.2,28.85,WNW,292,0.0,0.0,83,0.00,CLR,,0.00,WeatherDisplay:10.37,2013-06-03 04:18:00,
2013-06-02 23:22:00,34.5,29.9,28.85,WNW,292,0.0,0.0,83,0.00,CLR,,0.00,WeatherDisplay:10.37,2013-06-03 04:22:00,
2013-06-02 23:23:00,34.5,29.9,28.85,WNW,292,0.0,0.0,83,0.00,CLR,,0.00,WeatherDisplay:10.37,2013-06-03 04:23:00,
2013-06-02 23:25:00,34.5,29.9,28.85,WNW,292,0.0,0.0,83,0.00,CLR,,0.00,WeatherDisplay:10.37,2013-06-03 04:25:00,
2013-06-02 23:28:00,34.3,29.7,28.85,WNW,292,0.0,0.0,83,0.00,CLR,,0.00,WeatherDisplay:10.37,2013-06-03 04:28:00,
2013-06-02 23:29:00,34.3,29.7,28.85,WNW,292,0.0,0.0,83,0.00,CLR,,0.00,WeatherDisplay:10.37,2013-06-03 04:29:00,
2013-06-02 23:30:00,34.2,29.5,28.85,WNW,292,0.0,0.0,83,0.00,CLR,,0.00,WeatherDisplay:10.37,2013-06-03 04:30:00,
2013-06-02 23:33:00,34.0,29.4,28.85,WNW,292,0.0,0.0,83,0.00,CLR,,0.00,WeatherDisplay:10.37,2013-06-03 04:33:00,
2013-06-02 23:34:00,34.0,29.4,28.85,WNW,292,0.0,0.0,83,0.00,CLR,,0.00,WeatherDisplay:10.37,2013-06-03 04:34:00,
2013-06-02 23:35:00,34.0,29.4,28.85,WNW,292,0.0,0.0,83,0.00,CLR,,0.00,WeatherDisplay:10.37,2013-06-03 04:35:00,
2013-06-02 23:37:00,34.0,29.4,28.85,WNW,292,0.0,0.0,83,0.00,CLR,,0.00,WeatherDisplay:10.37,2013-06-03 04:37:00,
2013-06-02 23:38:00,34.0,29.4,28.85,WNW,292,0.0,0.0,83,0.00,CLR,,0.00,WeatherDisplay:10.37,2013-06-03 04:38:00,
2013-06-02 23:39:00,33.8,29.2,28.85,NW,315,0.0,0.0,83,0.00,CLR,,0.00,WeatherDisplay:10.37,2013-06-03 04:39:00,
2013-06-02 23:40:00,33.8,29.2,28.85,NW,315,0.0,0.0,83,0.00,CLR,,0.00,WeatherDisplay:10.37,2013-06-03 04:40:00,
2013-06-02 23:43:00,33.8,29.5,28.85,NW,315,0.0,0.0,84,0.00,CLR,,0.00,WeatherDisplay:10.37,2013-06-03 04:43:00,
2013-06-02 23:44:00,33.8,29.5,28.85,NW,315,0.0,0.0,84,0.00,CLR,,0.00,WeatherDisplay:10.37,2013-06-03 04:44:00,
2013-06-02 23:45:00,33.6,29.3,28.85,NW,315,0.0,0.0,84,0.00,CLR,,0.00,WeatherDisplay:10.37,2013-06-03 04:45:00,
2013-06-02 23:46:00,33.6,29.3,28.85,NW,315,0.0,0.0,84,0.00,CLR,,0.00,WeatherDisplay:10.37,2013-06-03 04:46:00,
2013-06-02 23:48:00,33.4,29.1,28.85,NW,315,0.0,0.0,84,0.00,CLR,,0.00,WeatherDisplay:10.37,2013-06-03 04:48:00,
2013-06-02 23:49:00,33.4,29.1,28.85,NW,315,0.0,0.0,84,0.00,CLR,,0.00,WeatherDisplay:10.37,2013-06-03 04:49:00,
2013-06-02 23:50:00,33.4,29.1,28.85,NW,315,0.0,0.0,84,0.00,CLR,,0.00,WeatherDisplay:10.37,2013-06-03 04:50:00,
2013-06-02 23:51:00,33.4,29.1,28.85,NW,315,0.0,0.0,84,0.00,CLR,,0.00,WeatherDisplay:10.37,2013-06-03 04:51:00,
2013-06-02 23:53:00,33.3,29.2,28.85,NW,315,0.0,0.0,85,0.00,CLR,,0.00,WeatherDisplay:10.37,2013-06-03 04:53:00,
2013-06-02 23:54:00,33.3,29.2,28.85,NW,315,0.0,0.0,85,0.00,CLR,,0.00,WeatherDisplay:10.37,2013-06-03 04:54:00,
2013-06-02 23:55:00,33.3,29.2,28.85,NW,315,0.0,0.0,85,0.00,CLR,,0.00,WeatherDisplay:10.37,2013-06-03 04:55:00,
2013-06-02 23:56:00,33.1,29.1,28.85,NW,315,0.0,0.0,85,0.00,CLR,,0.00,WeatherDisplay:10.37,2013-06-03 04:56:00,
2013-06-02 23:59:00,33.1,29.1,28.85,NW,315,0.0,0.0,85,0.00,CLR,,0.00,WeatherDisplay:10.37,2013-06-03 04:59:00,